Time,TemperatureF,DewpointF,PressureIn,WindDirection,WindDirectionDegrees,WindSpeedMPH,WindSpeedGustMPH,Humidity,HourlyPrecipIn,Conditions,Clouds,dailyrainin,SoftwareType,DateUTC
2013-04-26 00:01:00,46.3,37.8,30.25,ESE,113,0.0,0.0,72,0.00,,,0.00,WUHU216HW,2013-04-26 04:01:00,
2013-04-26 00:02:00,46.1,37.9,30.25,ESE,113,0.0,0.0,73,0.00,,,0.00,WUHU216HW,2013-04-26 04:02:00,
2013-04-26 00:06:00,46.3,38.1,30.25,ESE,113,0.0,0.0,73,0.00,,,0.00,WUHU216HW,2013-04-26 04:06:00,
2013-04-26 00:07:00,46.3,38.1,30.25,ESE,113,0.0,0.0,73,0.00,,,0.00,WUHU216HW,2013-04-26 04:07:00,
2013-04-26 00:11:00,46.3,38.4,30.25,ESE,113,0.0,0.0,74,0.00,,,0.00,WUHU216HW,2013-04-26 04:11:00,
2013-04-26 00:12:00,46.3,38.4,30.25,ESE,113,0.0,0.0,74,0.00,,,0.00,WUHU216HW,2013-04-26 04:12:00,
2013-04-26 00:13:00,46.3,38.4,30.25,ESE,113,0.0,0.0,74,0.00,,,0.00,WUHU216HW,2013-04-26 04:13:00,
2013-04-26 00:16:00,46.3,38.4,30.25,ESE,113,0.0,0.0,74,0.00,,,0.00,WUHU216HW,2013-04-26 04:16:00,
2013-04-26 00:17:00,46.3,38.8,30.25,ESE,113,0.0,0.0,75,0.00,,,0.00,WUHU216HW,2013-04-26 04:17:00,
2013-04-26 00:18:00,46.3,38.8,30.25,ESE,113,0.0,0.0,75,0.00,,,0.00,WUHU216HW,2013-04-26 04:18:00,
2013-04-26 00:37:00,46.3,38.8,30.25,ESE,113,0.0,0.0,75,0.00,,,0.00,WUHU216HW,2013-04-26 04:37:00,
2013-04-26 00:38:00,46.3,38.8,30.25,ESE,113,0.0,0.0,75,0.00,,,0.00,WUHU216HW,2013-04-26 04:38:00,
2013-04-26 00:39:00,46.3,38.8,30.25,ESE,113,0.0,0.0,75,0.00,,,0.00,WUHU216HW,2013-04-26 04:39:00,
2013-04-26 00:40:00,46.3,38.8,30.25,ESE,113,0.0,0.0,75,0.00,,,0.00,WUHU216HW,2013-04-26 04:40:00,
2013-04-26 00:43:00,46.3,38.8,30.25,ESE,113,0.0,0.0,75,0.00,,,0.00,WUHU216HW,2013-04-26 04:43:00,
2013-04-26 00:45:00,46.3,38.8,30.25,ESE,113,0.0,0.0,75,0.00,,,0.00,WUHU216HW,2013-04-26 04:45:00,
2013-04-26 01:00:00,48.4,39.8,30.26,WNW,293,0.0,0.0,72,0.00,,,0.00,WUHU216HW,2013-04-26 05:00:00,
2013-04-26 01:01:00,48.4,39.8,30.26,WNW,293,0.0,0.0,72,0.00,,,0.00,WUHU216HW,2013-04-26 05:01:00,
2013-04-26 01:05:00,48.4,39.8,30.26,WNW,293,0.0,0.0,72,0.00,,,0.00,WUHU216HW,2013-04-26 05:05:00,
2013-04-26 01:06:00,48.4,39.8,30.26,WNW,293,0.0,0.0,72,0.00,,,0.00,WUHU216HW,2013-04-26 05:06:00,
2013-04-26 01:07:00,48.2,39.6,30.25,WNW,293,0.0,0.0,72,0.00,,,0.00,WUHU216HW,2013-04-26 05:07:00,
2013-04-26 01:11:00,48.1,39.8,30.25,WNW,293,0.0,0.0,73,0.00,,,0.00,WUHU216HW,2013-04-26 05:11:00,
2013-04-26 01:12:00,48.1,39.8,30.25,WNW,293,0.0,0.0,73,0.00,,,0.00,WUHU216HW,2013-04-26 05:12:00,
2013-04-26 01:13:00,48.1,40.1,30.26,WNW,293,0.0,0.0,74,0.00,,,0.00,WUHU216HW,2013-04-26 05:13:00,
2013-04-26 01:16:00,47.9,40.0,30.26,WNW,293,0.0,0.0,74,0.00,,,0.00,WUHU216HW,2013-04-26 05:16:00,
2013-04-26 01:17:00,47.9,39.6,30.26,WNW,293,0.0,0.0,73,0.00,,,0.00,WUHU216HW,2013-04-26 05:17:00,
2013-04-26 01:18:00,47.7,39.4,30.26,WNW,293,0.0,0.0,73,0.00,,,0.00,WUHU216HW,2013-04-26 05:18:00,
2013-04-26 01:21:00,47.5,39.2,30.25,WNW,293,0.0,0.0,73,0.00,,,0.00,WUHU216HW,2013-04-26 05:21:00,
2013-04-26 01:22:00,47.5,39.2,30.25,WNW,293,0.0,0.0,73,0.00,,,0.00,WUHU216HW,2013-04-26 05:22:00,
2013-04-26 01:23:00,47.5,39.6,30.25,WNW,293,0.0,0.0,74,0.00,,,0.00,WUHU216HW,2013-04-26 05:23:00,
2013-04-26 01:25:00,47.3,39.4,30.25,WNW,293,0.0,0.0,74,0.00,,,0.00,WUHU216HW,2013-04-26 05:25:00,
2013-04-26 01:27:00,47.2,39.2,30.25,WNW,293,0.0,0.0,74,0.00,,,0.00,WUHU216HW,2013-04-26 05:27:00,
2013-04-26 01:28:00,47.2,39.2,30.25,WNW,293,0.0,0.0,74,0.00,,,0.00,WUHU216HW,2013-04-26 05:28:00,
2013-04-26 01:29:00,47.2,39.2,30.25,WNW,293,0.0,0.0,74,0.00,,,0.00,WUHU216HW,2013-04-26 05:29:00,
2013-04-26 01:31:00,47.0,39.2,30.25,WNW,293,0.0,0.0,74,0.00,,,0.00,WUHU216HW,2013-04-26 05:31:00,
2013-04-26 01:32:00,47.0,39.2,30.25,WNW,293,0.0,0.0,74,0.00,,,0.00,WUHU216HW,2013-04-26 05:32:00,
2013-04-26 01:33:00,46.8,39.0,30.24,WNW,293,0.0,0.0,74,0.00,,,0.00,WUHU216HW,2013-04-26 05:33:00,
2013-04-26 01:34:00,46.8,39.3,30.24,WNW,293,0.0,0.0,75,0.00,,,0.00,WUHU216HW,2013-04-26 05:34:00,
2013-04-26 01:37:00,46.4,38.6,30.24,WNW,293,0.0,0.0,74,0.00,,,0.00,WUHU216HW,2013-04-26 05:37:00,
2013-04-26 01:38:00,46.4,38.6,30.24,WNW,293,0.0,0.0,74,0.00,,,0.00,WUHU216HW,2013-04-26 05:38:00,
2013-04-26 01:41:00,46.4,38.6,30.24,WNW,293,0.0,0.0,74,0.00,,,0.00,WUHU216HW,2013-04-26 05:41:00,
2013-04-26 01:42:00,46.4,38.6,30.24,WNW,293,0.0,0.0,74,0.00,,,0.00,WUHU216HW,2013-04-26 05:42:00,
2013-04-26 02:21:00,46.4,38.6,30.24,WNW,293,0.0,0.0,74,0.00,,,0.00,WUHU216HW,2013-04-26 06:21:00,
2013-04-26 02:22:00,46.4,38.6,30.24,WNW,293,0.0,0.0,74,0.00,,,0.00,WUHU216HW,2013-04-26 06:22:00,
2013-04-26 02:25:00,46.4,38.6,30.24,WNW,293,0.0,0.0,74,0.00,,,0.00,WUHU216HW,2013-04-26 06:25:00,
2013-04-26 02:27:00,46.4,38.6,30.24,WNW,293,0.0,0.0,74,0.00,,,0.00,WUHU216HW,2013-04-26 06:27:00,
2013-04-26 02:28:00,46.4,38.6,30.24,WNW,293,0.0,0.0,74,0.00,,,0.00,WUHU216HW,2013-04-26 06:28:00,
2013-04-26 03:00:00,43.6,36.8,30.25,WNW,293,0.0,0.0,77,0.00,,,0.00,WUHU216HW,2013-04-26 07:00:00,
2013-04-26 03:05:00,43.2,36.5,30.25,WNW,293,0.0,0.0,77,0.00,,,0.00,WUHU216HW,2013-04-26 07:05:00,
2013-04-26 03:06:00,43.2,36.5,30.25,WNW,293,0.0,0.0,77,0.00,,,0.00,WUHU216HW,2013-04-26 07:06:00,
2013-04-26 03:07:00,43.2,36.5,30.25,WNW,293,0.0,0.0,77,0.00,,,0.00,WUHU216HW,2013-04-26 07:07:00,
2013-04-26 03:10:00,43.0,36.3,30.25,WNW,293,0.0,0.0,77,0.00,,,0.00,WUHU216HW,2013-04-26 07:10:00,
2013-04-26 03:11:00,43.0,36.3,30.25,WNW,293,0.0,0.0,77,0.00,,,0.00,WUHU216HW,2013-04-26 07:11:00,
2013-04-26 03:12:00,42.8,36.1,30.25,WNW,293,0.0,0.0,77,0.00,,,0.00,WUHU216HW,2013-04-26 07:12:00,
2013-04-26 03:14:00,42.8,36.1,30.25,WNW,293,0.0,0.0,77,0.00,,,0.00,WUHU216HW,2013-04-26 07:14:00,
2013-04-26 03:15:00,42.8,36.1,30.25,WNW,293,0.0,0.0,77,0.00,,,0.00,WUHU216HW,2013-04-26 07:15:00,
2013-04-26 03:16:00,42.8,36.1,30.25,WNW,293,0.0,0.0,77,0.00,,,0.00,WUHU216HW,2013-04-26 07:16:00,
2013-04-26 03:17:00,42.8,36.1,30.25,WNW,293,0.0,0.0,77,0.00,,,0.00,WUHU216HW,2013-04-26 07:17:00,
2013-04-26 03:18:00,42.8,36.1,30.25,WNW,293,0.0,0.0,77,0.00,,,0.00,WUHU216HW,2013-04-26 07:18:00,
2013-04-26 03:20:00,42.7,35.9,30.25,WNW,293,0.0,0.0,77,0.00,,,0.00,WUHU216HW,2013-04-26 07:20:00,
2013-04-26 03:22:00,42.7,36.3,30.25,WNW,293,0.0,0.0,78,0.00,,,0.00,WUHU216HW,2013-04-26 07:22:00,
2013-04-26 03:23:00,42.7,36.3,30.25,WNW,293,0.0,0.0,78,0.00,,,0.00,WUHU216HW,2013-04-26 07:23:00,
2013-04-26 03:25:00,42.7,36.3,30.25,WNW,293,0.0,0.0,78,0.00,,,0.00,WUHU216HW,2013-04-26 07:25:00,
2013-04-26 03:26:00,42.5,36.1,30.25,WNW,293,0.0,0.0,78,0.00,,,0.00,WUHU216HW,2013-04-26 07:26:00,
2013-04-26 03:55:00,42.5,36.1,30.25,WNW,293,0.0,0.0,78,0.00,,,0.00,WUHU216HW,2013-04-26 07:55:00,
2013-04-26 03:57:00,42.5,36.1,30.25,WNW,293,0.0,0.0,78,0.00,,,0.00,WUHU216HW,2013-04-26 07:57:00,
2013-04-26 04:00:00,41.8,35.6,30.26,WNW,293,0.0,0.0,79,0.00,,,0.00,WUHU216HW,2013-04-26 08:00:00,
2013-04-26 04:01:00,41.8,35.6,30.26,WNW,293,0.0,0.0,79,0.00,,,0.00,WUHU216HW,2013-04-26 08:01:00,
2013-04-26 04:02:00,41.8,35.6,30.26,WNW,293,0.0,0.0,79,0.00,,,0.00,WUHU216HW,2013-04-26 08:02:00,
2013-04-26 04:06:00,41.8,35.6,30.26,WNW,293,0.0,0.0,79,0.00,,,0.00,WUHU216HW,2013-04-26 08:06:00,
2013-04-26 04:07:00,41.6,35.5,30.26,WNW,293,0.0,0.0,79,0.00,,,0.00,WUHU216HW,2013-04-26 08:07:00,
2013-04-26 04:09:00,41.6,35.5,30.26,WNW,293,0.0,0.0,79,0.00,,,0.00,WUHU216HW,2013-04-26 08:09:00,
2013-04-26 04:11:00,41.6,35.5,30.26,WNW,293,0.0,0.0,79,0.00,,,0.00,WUHU216HW,2013-04-26 08:11:00,
2013-04-26 04:12:00,41.4,35.3,30.26,WNW,293,0.0,0.0,79,0.00,,,0.00,WUHU216HW,2013-04-26 08:12:00,
2013-04-26 04:13:00,41.4,35.3,30.26,WNW,293,0.0,0.0,79,0.00,,,0.00,WUHU216HW,2013-04-26 08:13:00,
2013-04-26 04:15:00,41.4,35.3,30.27,WNW,293,0.0,0.0,79,0.00,,,0.00,WUHU216HW,2013-04-26 08:15:00,
2013-04-26 04:16:00,41.4,35.3,30.27,WNW,293,0.0,0.0,79,0.00,,,0.00,WUHU216HW,2013-04-26 08:16:00,
2013-04-26 04:17:00,41.4,35.3,30.27,WNW,293,0.0,0.0,79,0.00,,,0.00,WUHU216HW,2013-04-26 08:17:00,
2013-04-26 04:19:00,41.4,35.3,30.27,WNW,293,0.0,0.0,79,0.00,,,0.00,WUHU216HW,2013-04-26 08:19:00,
2013-04-26 04:20:00,41.4,35.3,30.27,WNW,293,0.0,0.0,79,0.00,,,0.00,WUHU216HW,2013-04-26 08:20:00,
2013-04-26 04:21:00,41.2,35.1,30.27,WNW,293,0.0,0.0,79,0.00,,,0.00,WUHU216HW,2013-04-26 08:21:00,
2013-04-26 04:24:00,41.2,35.1,30.27,WNW,293,0.0,0.0,79,0.00,,,0.00,WUHU216HW,2013-04-26 08:24:00,
2013-04-26 04:25:00,41.2,35.5,30.27,WNW,293,0.0,0.0,80,0.00,,,0.00,WUHU216HW,2013-04-26 08:25:00,
2013-04-26 04:27:00,41.2,35.5,30.27,WNW,293,0.0,0.0,80,0.00,,,0.00,WUHU216HW,2013-04-26 08:27:00,
2013-04-26 04:28:00,41.2,35.5,30.27,WNW,293,0.0,0.0,80,0.00,,,0.00,WUHU216HW,2013-04-26 08:28:00,
2013-04-26 04:29:00,41.2,35.5,30.27,WNW,293,0.0,0.0,80,0.00,,,0.00,WUHU216HW,2013-04-26 08:29:00,
2013-04-26 04:30:00,41.2,35.5,30.27,WNW,293,0.0,0.0,80,0.00,,,0.00,WUHU216HW,2013-04-26 08:30:00,
2013-04-26 04:32:00,41.0,35.3,30.27,WNW,293,0.0,0.0,80,0.00,,,0.00,WUHU216HW,2013-04-26 08:32:00,
2013-04-26 04:34:00,41.0,35.3,30.27,WNW,293,0.0,0.0,80,0.00,,,0.00,WUHU216HW,2013-04-26 08:34:00,
2013-04-26 04:35:00,41.0,35.3,30.27,WNW,293,0.0,0.0,80,0.00,,,0.00,WUHU216HW,2013-04-26 08:35:00,
2013-04-26 04:37:00,41.0,35.3,30.28,WNW,293,0.0,0.0,80,0.00,,,0.00,WUHU216HW,2013-04-26 08:37:00,
2013-04-26 04:40:00,40.9,35.1,30.28,WNW,293,0.0,0.0,80,0.00,,,0.00,WUHU216HW,2013-04-26 08:40:00,
2013-04-26 04:41:00,40.9,35.1,30.28,WNW,293,0.0,0.0,80,0.00,,,0.00,WUHU216HW,2013-04-26 08:41:00,
2013-04-26 04:43:00,40.9,35.1,30.28,WNW,293,0.0,0.0,80,0.00,,,0.00,WUHU216HW,2013-04-26 08:43:00,
2013-04-26 04:45:00,40.7,35.3,30.28,WNW,293,0.0,0.0,81,0.00,,,0.00,WUHU216HW,2013-04-26 08:45:00,
2013-04-26 04:46:00,40.7,34.9,30.28,WNW,293,0.0,0.0,80,0.00,,,0.00,WUHU216HW,2013-04-26 08:46:00,
2013-04-26 04:47:00,40.7,34.9,30.28,WNW,293,0.0,0.0,80,0.00,,,0.00,WUHU216HW,2013-04-26 08:47:00,
2013-04-26 04:49:00,40.7,35.3,30.28,WNW,293,0.0,0.0,81,0.00,,,0.00,WUHU216HW,2013-04-26 08:49:00,
2013-04-26 04:50:00,40.7,35.3,30.28,WNW,293,0.0,0.0,81,0.00,,,0.00,WUHU216HW,2013-04-26 08:50:00,
2013-04-26 04:51:00,40.7,35.3,30.28,WNW,293,0.0,0.0,81,0.00,,,0.00,WUHU216HW,2013-04-26 08:51:00,
2013-04-26 04:52:00,40.5,35.1,30.28,WNW,293,0.0,0.0,81,0.00,,,0.00,WUHU216HW,2013-04-26 08:52:00,
2013-04-26 04:55:00,40.5,35.1,30.28,WNW,293,0.0,0.0,81,0.00,,,0.00,WUHU216HW,2013-04-26 08:55:00,
2013-04-26 04:56:00,40.5,35.1,30.28,WNW,293,0.0,0.0,81,0.00,,,0.00,WUHU216HW,2013-04-26 08:56:00,
2013-04-26 04:57:00,40.5,35.1,30.29,WNW,293,0.0,0.0,81,0.00,,,0.00,WUHU216HW,2013-04-26 08:57:00,
2013-04-26 04:59:00,40.3,34.9,30.29,WNW,293,0.0,0.0,81,0.00,,,0.00,WUHU216HW,2013-04-26 08:59:00,
2013-04-26 05:16:00,40.3,34.9,30.29,WNW,293,0.0,0.0,81,0.00,,,0.00,WUHU216HW,2013-04-26 09:16:00,
2013-04-26 05:17:00,40.3,34.9,30.29,WNW,293,0.0,0.0,81,0.00,,,0.00,WUHU216HW,2013-04-26 09:17:00,
2013-04-26 05:22:00,40.3,34.9,30.29,WNW,293,0.0,0.0,81,0.00,,,0.00,WUHU216HW,2013-04-26 09:22:00,
2013-04-26 05:23:00,40.3,34.9,30.29,WNW,293,0.0,0.0,81,0.00,,,0.00,WUHU216HW,2013-04-26 09:23:00,
2013-04-26 06:00:00,39.6,34.6,30.31,NW,315,0.0,0.0,82,0.00,,,0.00,WUHU216HW,2013-04-26 10:00:00,
2013-04-26 06:02:00,39.4,34.4,30.31,NW,315,0.0,0.0,82,0.00,,,0.00,WUHU216HW,2013-04-26 10:02:00,
2013-04-26 06:05:00,39.4,34.4,30.32,NW,315,0.0,0.0,82,0.00,,,0.00,WUHU216HW,2013-04-26 10:05:00,
2013-04-26 06:06:00,39.6,34.6,30.32,NW,315,0.0,0.0,82,0.00,,,0.00,WUHU216HW,2013-04-26 10:06:00,
2013-04-26 06:07:00,39.4,34.4,30.32,NW,315,0.0,0.0,82,0.00,,,0.00,WUHU216HW,2013-04-26 10:07:00,
2013-04-26 06:11:00,39.4,34.4,30.32,NW,315,0.0,0.0,82,0.00,,,0.00,WUHU216HW,2013-04-26 10:11:00,
2013-04-26 06:12:00,39.4,34.4,30.32,NW,315,0.0,0.0,82,0.00,,,0.00,WUHU216HW,2013-04-26 10:12:00,
2013-04-26 06:13:00,39.4,34.4,30.32,NW,315,0.0,0.0,82,0.00,,,0.00,WUHU216HW,2013-04-26 10:13:00,
2013-04-26 06:16:00,39.6,34.6,30.32,NW,315,0.0,0.0,82,0.00,,,0.00,WUHU216HW,2013-04-26 10:16:00,
2013-04-26 06:22:00,39.6,34.6,30.32,NW,315,0.0,0.0,82,0.00,,,0.00,WUHU216HW,2013-04-26 10:22:00,
2013-04-26 06:23:00,39.6,34.6,30.32,NW,315,0.0,0.0,82,0.00,,,0.00,WUHU216HW,2013-04-26 10:23:00,
2013-04-26 06:24:00,39.6,34.6,30.32,NW,315,0.0,0.0,82,0.00,,,0.00,WUHU216HW,2013-04-26 10:24:00,
2013-04-26 06:25:00,39.6,34.6,30.32,NW,315,0.0,0.0,82,0.00,,,0.00,WUHU216HW,2013-04-26 10:25:00,
2013-04-26 06:28:00,39.6,34.6,30.32,NW,315,0.0,0.0,82,0.00,,,0.00,WUHU216HW,2013-04-26 10:28:00,
2013-04-26 06:29:00,39.6,34.6,30.32,NW,315,0.0,0.0,82,0.00,,,0.00,WUHU216HW,2013-04-26 10:29:00,
2013-04-26 06:30:00,39.6,34.6,30.32,NW,315,0.0,0.0,82,0.00,,,0.00,WUHU216HW,2013-04-26 10:30:00,
2013-04-26 07:00:00,40.0,34.9,30.34,NW,315,0.0,0.0,82,0.00,,,0.00,WUHU216HW,2013-04-26 11:00:00,
2013-04-26 07:01:00,40.0,34.9,30.34,NW,315,0.0,0.0,82,0.00,,,0.00,WUHU216HW,2013-04-26 11:01:00,
2013-04-26 07:02:00,40.1,35.1,30.34,NW,315,0.0,0.0,82,0.00,,,0.00,WUHU216HW,2013-04-26 11:02:00,
2013-04-26 07:05:00,40.1,35.1,30.34,NW,315,0.0,0.0,82,0.00,,,0.00,WUHU216HW,2013-04-26 11:05:00,
2013-04-26 07:06:00,40.3,35.6,30.35,NW,315,0.0,0.0,83,0.00,,,0.00,WUHU216HW,2013-04-26 11:06:00,
2013-04-26 07:07:00,40.3,35.6,30.35,NW,315,0.0,0.0,83,0.00,,,0.00,WUHU216HW,2013-04-26 11:07:00,
2013-04-26 07:10:00,40.5,35.7,30.35,NW,315,0.0,0.0,83,0.00,,,0.00,WUHU216HW,2013-04-26 11:10:00,
2013-04-26 07:11:00,40.7,35.8,30.35,NW,315,0.0,0.0,83,0.00,,,0.00,WUHU216HW,2013-04-26 11:11:00,
2013-04-26 07:12:00,40.7,36.2,30.35,NW,315,0.0,0.0,84,0.00,,,0.00,WUHU216HW,2013-04-26 11:12:00,
2013-04-26 07:15:00,40.7,35.8,30.35,NW,315,0.0,0.0,83,0.00,,,0.00,WUHU216HW,2013-04-26 11:15:00,
2013-04-26 07:17:00,40.9,36.4,30.35,NW,315,0.0,0.0,84,0.00,,,0.00,WUHU216HW,2013-04-26 11:17:00,
2013-04-26 07:18:00,40.9,36.4,30.35,NW,315,0.0,0.0,84,0.00,,,0.00,WUHU216HW,2013-04-26 11:18:00,
2013-04-26 07:20:00,41.0,36.6,30.35,NW,315,0.0,0.0,84,0.00,,,0.00,WUHU216HW,2013-04-26 11:20:00,
2013-04-26 07:21:00,41.2,36.7,30.35,NW,315,0.0,0.0,84,0.00,,,0.00,WUHU216HW,2013-04-26 11:21:00,
2013-04-26 07:22:00,41.2,36.7,30.35,NW,315,0.0,0.0,84,0.00,,,0.00,WUHU216HW,2013-04-26 11:22:00,
2013-04-26 07:23:00,41.4,36.9,30.35,NW,315,0.0,0.0,84,0.00,,,0.00,WUHU216HW,2013-04-26 11:23:00,
2013-04-26 07:54:00,41.4,36.9,30.35,NW,315,0.0,0.0,84,0.00,,,0.00,WUHU216HW,2013-04-26 11:54:00,
2013-04-26 07:55:00,41.4,36.9,30.35,NW,315,0.0,0.0,84,0.00,,,0.00,WUHU216HW,2013-04-26 11:55:00,
2013-04-26 07:56:00,41.4,36.9,30.35,NW,315,0.0,0.0,84,0.00,,,0.00,WUHU216HW,2013-04-26 11:56:00,
2013-04-26 08:00:00,45.0,40.1,30.36,NW,315,0.0,0.0,83,0.00,,,0.00,WUHU216HW,2013-04-26 12:00:00,
2013-04-26 08:01:00,45.0,40.1,30.36,NW,315,0.0,0.0,83,0.00,,,0.00,WUHU216HW,2013-04-26 12:01:00,
2013-04-26 08:03:00,45.4,40.5,30.36,NW,315,0.0,0.0,83,0.00,,,0.00,WUHU216HW,2013-04-26 12:03:00,
2013-04-26 08:05:00,45.7,40.6,30.36,NW,315,0.0,0.0,82,0.00,,,0.00,WUHU216HW,2013-04-26 12:05:00,
2013-04-26 08:06:00,45.9,40.8,30.36,NW,315,0.0,0.0,82,0.00,,,0.00,WUHU216HW,2013-04-26 12:06:00,
2013-04-26 08:07:00,45.9,40.8,30.36,NW,315,0.0,0.0,82,0.00,,,0.00,WUHU216HW,2013-04-26 12:07:00,
2013-04-26 08:08:00,46.3,41.1,30.36,NW,315,0.0,0.0,82,0.00,,,0.00,WUHU216HW,2013-04-26 12:08:00,
2013-04-26 08:11:00,46.8,41.3,30.36,NW,315,0.0,0.0,81,0.00,,,0.00,WUHU216HW,2013-04-26 12:11:00,
2013-04-26 08:12:00,47.0,41.5,30.36,NW,315,0.0,0.0,81,0.00,,,0.00,WUHU216HW,2013-04-26 12:12:00,
2013-04-26 08:13:00,47.3,41.8,30.36,NW,315,0.0,0.0,81,0.00,,,0.00,WUHU216HW,2013-04-26 12:13:00,
2013-04-26 08:16:00,47.9,42.3,30.37,NW,315,0.0,0.0,81,0.00,,,0.00,WUHU216HW,2013-04-26 12:16:00,
2013-04-26 08:17:00,48.1,42.1,30.37,NW,315,0.0,0.0,80,0.00,,,0.00,WUHU216HW,2013-04-26 12:17:00,
2013-04-26 08:18:00,48.4,42.9,30.37,NW,315,0.0,0.0,81,0.00,,,0.00,WUHU216HW,2013-04-26 12:18:00,
2013-04-26 08:19:00,48.6,43.0,30.37,NW,315,0.0,0.0,81,0.00,,,0.00,WUHU216HW,2013-04-26 12:19:00,
2013-04-26 08:21:00,49.0,43.0,30.37,NW,315,0.0,0.0,80,0.00,,,0.00,WUHU216HW,2013-04-26 12:21:00,
2013-04-26 08:24:00,49.3,43.4,30.37,NW,315,0.0,0.0,80,0.00,,,0.00,WUHU216HW,2013-04-26 12:24:00,
2013-04-26 08:25:00,49.7,43.4,30.37,NW,315,0.0,0.0,79,0.00,,,0.00,WUHU216HW,2013-04-26 12:25:00,
2013-04-26 08:27:00,50.0,43.7,30.37,NW,315,0.0,0.0,79,0.00,,,0.00,WUHU216HW,2013-04-26 12:27:00,
2013-04-26 08:29:00,50.2,43.6,30.37,NW,315,0.0,0.0,78,0.00,,,0.00,WUHU216HW,2013-04-26 12:29:00,
2013-04-26 08:30:00,50.0,43.4,30.37,NW,315,0.0,0.0,78,0.00,,,0.00,WUHU216HW,2013-04-26 12:30:00,
2013-04-26 08:31:00,50.2,43.6,30.37,NW,315,0.0,0.0,78,0.00,,,0.00,WUHU216HW,2013-04-26 12:31:00,
2013-04-26 08:32:00,50.4,43.1,30.37,East,90,0.4,0.4,76,0.00,,,0.00,WUHU216HW,2013-04-26 12:32:00,
2013-04-26 08:33:00,50.4,43.1,30.37,East,90,0.0,0.4,76,0.00,,,0.00,WUHU216HW,2013-04-26 12:33:00,
2013-04-26 08:35:00,50.8,43.5,30.37,East,90,0.0,0.4,76,0.00,,,0.00,WUHU216HW,2013-04-26 12:35:00,
2013-04-26 08:37:00,50.8,43.1,30.37,SE,135,0.0,0.4,75,0.00,,,0.00,WUHU216HW,2013-04-26 12:37:00,
2013-04-26 08:39:00,51.3,43.7,30.37,SE,135,0.0,0.4,75,0.00,,,0.00,WUHU216HW,2013-04-26 12:39:00,
2013-04-26 08:41:00,51.5,42.9,30.37,SE,135,0.7,0.7,72,0.00,,,0.00,WUHU216HW,2013-04-26 12:41:00,
2013-04-26 08:42:00,51.8,42.9,30.37,SE,135,0.9,1.6,71,0.00,,,0.00,WUHU216HW,2013-04-26 12:42:00,
2013-04-26 08:43:00,52.0,43.3,30.37,ESE,113,0.9,1.6,72,0.00,,,0.00,WUHU216HW,2013-04-26 12:43:00,
2013-04-26 08:44:00,52.2,43.5,30.37,SSW,203,0.4,1.6,72,0.00,,,0.00,WUHU216HW,2013-04-26 12:44:00,
2013-04-26 08:46:00,52.6,43.1,30.37,SE,135,0.0,1.6,70,0.00,,,0.00,WUHU216HW,2013-04-26 12:46:00,
2013-04-26 08:48:00,52.9,43.5,30.38,SE,135,0.0,1.6,70,0.00,,,0.00,WUHU216HW,2013-04-26 12:48:00,
2013-04-26 08:49:00,53.1,43.2,30.37,SE,135,0.0,1.6,69,0.00,,,0.00,WUHU216HW,2013-04-26 12:49:00,
2013-04-26 08:50:00,53.1,41.6,30.38,West,270,0.2,1.6,65,0.00,,,0.00,WUHU216HW,2013-04-26 12:50:00,
2013-04-26 08:52:00,53.5,41.6,30.38,West,270,0.4,1.6,64,0.00,,,0.00,WUHU216HW,2013-04-26 12:52:00,
2013-04-26 08:54:00,53.6,41.3,30.38,ESE,113,0.0,1.1,63,0.00,,,0.00,WUHU216HW,2013-04-26 12:54:00,
2013-04-26 08:55:00,53.8,41.9,30.38,North,0,0.0,1.1,64,0.00,,,0.00,WUHU216HW,2013-04-26 12:55:00,
2013-04-26 08:56:00,53.8,42.7,30.38,NNE,23,0.0,1.1,66,0.00,,,0.00,WUHU216HW,2013-04-26 12:56:00,
2013-04-26 08:58:00,54.0,41.7,30.38,West,270,0.4,1.1,63,0.00,,,0.00,WUHU216HW,2013-04-26 12:58:00,
2013-04-26 08:59:00,54.0,40.0,30.38,WNW,293,0.4,1.1,59,0.00,,,0.00,WUHU216HW,2013-04-26 12:59:00,
2013-04-26 09:01:00,54.4,39.4,30.38,WSW,248,0.4,0.4,57,0.00,,,0.00,WUHU216HW,2013-04-26 13:01:00,
2013-04-26 09:02:00,54.4,39.4,30.38,ESE,113,1.3,1.3,57,0.00,,,0.00,WUHU216HW,2013-04-26 13:02:00,
2013-04-26 09:04:00,54.7,40.1,30.38,SE,135,1.1,1.3,58,0.00,,,0.00,WUHU216HW,2013-04-26 13:04:00,
2013-04-26 09:05:00,54.7,41.1,30.38,SE,135,0.7,1.3,60,0.00,,,0.00,WUHU216HW,2013-04-26 13:05:00,
2013-04-26 09:07:00,55.1,39.1,30.38,ENE,68,1.1,2.0,55,0.00,,,0.00,WUHU216HW,2013-04-26 13:07:00,
2013-04-26 09:09:00,55.3,38.8,30.38,WNW,293,0.0,2.0,54,0.00,,,0.00,WUHU216HW,2013-04-26 13:09:00,
2013-04-26 09:10:00,55.4,39.0,30.38,SE,135,0.4,2.0,54,0.00,,,0.00,WUHU216HW,2013-04-26 13:10:00,
2013-04-26 09:11:00,55.4,39.9,30.38,West,270,0.4,2.0,56,0.00,,,0.00,WUHU216HW,2013-04-26 13:11:00,
2013-04-26 09:12:00,55.4,38.0,30.38,NE,45,0.0,2.0,52,0.00,,,0.00,WUHU216HW,2013-04-26 13:12:00,
2013-04-26 09:15:00,55.6,38.2,30.38,NW,315,0.2,2.0,52,0.00,,,0.00,WUHU216HW,2013-04-26 13:15:00,
2013-04-26 09:16:00,55.8,38.9,30.38,NW,315,0.4,2.0,53,0.00,,,0.00,WUHU216HW,2013-04-26 13:16:00,
2013-04-26 09:17:00,55.8,38.3,30.38,West,270,0.2,1.3,52,0.00,,,0.00,WUHU216HW,2013-04-26 13:17:00,
2013-04-26 09:18:00,55.8,39.8,30.38,NNW,338,0.4,1.6,55,0.00,,,0.00,WUHU216HW,2013-04-26 13:18:00,
2013-04-26 09:21:00,56.0,39.1,30.38,ESE,113,0.2,1.6,53,0.00,,,0.00,WUHU216HW,2013-04-26 13:21:00,
2013-04-26 09:22:00,56.2,38.3,30.38,West,270,1.1,1.6,51,0.00,,,0.00,WUHU216HW,2013-04-26 13:22:00,
2013-04-26 09:24:00,56.2,38.3,30.38,West,270,0.0,1.6,51,0.00,,,0.00,WUHU216HW,2013-04-26 13:24:00,
2013-04-26 09:26:00,56.3,37.5,30.38,WNW,293,0.0,1.6,49,0.00,,,0.00,WUHU216HW,2013-04-26 13:26:00,
2013-04-26 09:28:00,56.5,39.1,30.39,East,90,0.0,1.1,52,0.00,,,0.00,WUHU216HW,2013-04-26 13:28:00,
2013-04-26 09:29:00,56.7,38.8,30.39,NW,315,0.4,1.1,51,0.00,,,0.00,WUHU216HW,2013-04-26 13:29:00,
2013-04-26 09:31:00,56.7,39.8,30.38,NW,315,0.2,1.1,53,0.00,,,0.00,WUHU216HW,2013-04-26 13:31:00,
2013-04-26 09:32:00,56.9,39.4,30.38,East,90,0.9,1.1,52,0.00,,,0.00,WUHU216HW,2013-04-26 13:32:00,
2013-04-26 09:33:00,56.9,39.4,30.38,ESE,113,0.2,0.9,52,0.00,,,0.00,WUHU216HW,2013-04-26 13:33:00,
2013-04-26 09:35:00,57.1,39.2,30.38,SSE,158,0.0,0.9,51,0.00,,,0.00,WUHU216HW,2013-04-26 13:35:00,
2013-04-26 09:36:00,57.2,38.4,30.38,WSW,248,0.4,1.3,49,0.00,,,0.00,WUHU216HW,2013-04-26 13:36:00,
2013-04-26 09:37:00,57.2,37.7,30.39,West,270,0.9,1.3,48,0.00,,,0.00,WUHU216HW,2013-04-26 13:37:00,
2013-04-26 09:39:00,57.2,39.3,30.38,NNE,23,0.7,1.3,51,0.00,,,0.00,WUHU216HW,2013-04-26 13:39:00,
2013-04-26 09:40:00,57.2,39.8,30.38,NE,45,0.0,1.3,52,0.00,,,0.00,WUHU216HW,2013-04-26 13:40:00,
2013-04-26 09:41:00,57.2,39.8,30.38,NE,45,0.2,1.3,52,0.00,,,0.00,WUHU216HW,2013-04-26 13:41:00,
2013-04-26 09:42:00,57.4,39.1,30.38,NNE,23,0.0,1.3,50,0.00,,,0.00,WUHU216HW,2013-04-26 13:42:00,
2013-04-26 09:44:00,57.6,39.7,30.38,NE,45,0.0,1.3,51,0.00,,,0.00,WUHU216HW,2013-04-26 13:44:00,
2013-04-26 09:45:00,57.6,38.6,30.38,SE,135,1.8,1.8,49,0.00,,,0.00,WUHU216HW,2013-04-26 13:45:00,
2013-04-26 09:46:00,57.6,38.1,30.38,ESE,113,1.6,1.8,48,0.00,,,0.00,WUHU216HW,2013-04-26 13:46:00,
2013-04-26 09:47:00,57.6,38.1,30.38,South,180,1.3,1.8,48,0.00,,,0.00,WUHU216HW,2013-04-26 13:47:00,
2013-04-26 09:49:00,57.6,36.9,30.38,ESE,113,0.7,2.5,46,0.00,,,0.00,WUHU216HW,2013-04-26 13:49:00,
2013-04-26 09:52:00,57.8,35.9,30.38,NNW,338,0.4,2.5,44,0.00,,,0.00,WUHU216HW,2013-04-26 13:52:00,
2013-04-26 09:55:00,58.0,36.6,30.38,ESE,113,1.1,2.5,45,0.00,,,0.00,WUHU216HW,2013-04-26 13:55:00,
2013-04-26 09:56:00,58.0,36.6,30.38,SE,135,0.9,2.5,45,0.00,,,0.00,WUHU216HW,2013-04-26 13:56:00,
2013-04-26 09:57:00,58.1,37.4,30.38,ESE,113,2.0,2.5,46,0.00,,,0.00,WUHU216HW,2013-04-26 13:57:00,
2013-04-26 09:58:00,58.1,38.0,30.38,SE,135,1.3,2.0,47,0.00,,,0.00,WUHU216HW,2013-04-26 13:58:00,
2013-04-26 10:00:00,58.1,38.0,30.38,ESE,113,0.0,2.0,47,0.00,,,0.00,WUHU216HW,2013-04-26 14:00:00,
2013-04-26 10:01:00,58.1,38.5,30.38,ESE,113,0.0,2.0,48,0.00,,,0.00,WUHU216HW,2013-04-26 14:01:00,
2013-04-26 10:03:00,58.3,38.7,30.38,ESE,113,0.4,2.2,48,0.00,,,0.00,WUHU216HW,2013-04-26 14:03:00,
2013-04-26 10:04:00,58.5,38.9,30.38,SE,135,1.1,2.2,48,0.00,,,0.00,WUHU216HW,2013-04-26 14:04:00,
2013-04-26 10:05:00,58.5,38.9,30.39,SE,135,0.2,2.2,48,0.00,,,0.00,WUHU216HW,2013-04-26 14:05:00,
2013-04-26 10:08:00,58.5,38.9,30.39,ESE,113,1.8,2.2,48,0.00,,,0.00,WUHU216HW,2013-04-26 14:08:00,
2013-04-26 10:09:00,58.5,38.3,30.39,SE,135,1.8,2.2,47,0.00,,,0.00,WUHU216HW,2013-04-26 14:09:00,
2013-04-26 10:10:00,58.7,37.9,30.39,East,90,0.2,2.2,46,0.00,,,0.00,WUHU216HW,2013-04-26 14:10:00,
2013-04-26 10:11:00,58.7,37.9,30.38,ESE,113,0.2,2.2,46,0.00,,,0.00,WUHU216HW,2013-04-26 14:11:00,
2013-04-26 10:14:00,58.9,37.4,30.39,WNW,293,0.9,2.0,45,0.00,,,0.00,WUHU216HW,2013-04-26 14:14:00,
2013-04-26 10:15:00,59.0,37.6,30.39,WNW,293,0.0,2.0,45,0.00,,,0.00,WUHU216HW,2013-04-26 14:15:00,
2013-04-26 10:17:00,59.2,37.2,30.39,WNW,293,0.0,2.0,44,0.00,,,0.00,WUHU216HW,2013-04-26 14:17:00,
2013-04-26 10:19:00,59.2,38.3,30.39,North,0,0.0,1.8,46,0.00,,,0.00,WUHU216HW,2013-04-26 14:19:00,
2013-04-26 10:20:00,59.4,38.5,30.39,NE,45,0.0,1.8,46,0.00,,,0.00,WUHU216HW,2013-04-26 14:20:00,
2013-04-26 10:22:00,59.4,38.5,30.39,ENE,68,0.0,1.8,46,0.00,,,0.00,WUHU216HW,2013-04-26 14:22:00,
2013-04-26 10:23:00,59.4,36.8,30.39,WNW,293,0.4,1.8,43,0.00,,,0.00,WUHU216HW,2013-04-26 14:23:00,
2013-04-26 10:25:00,59.8,37.1,30.39,SSW,203,1.1,1.8,43,0.00,,,0.00,WUHU216HW,2013-04-26 14:25:00,
2013-04-26 10:26:00,59.8,37.1,30.39,West,270,0.2,1.8,43,0.00,,,0.00,WUHU216HW,2013-04-26 14:26:00,
2013-04-26 10:27:00,59.8,37.1,30.39,NE,45,0.2,1.8,43,0.00,,,0.00,WUHU216HW,2013-04-26 14:27:00,
2013-04-26 10:28:00,59.8,36.5,30.39,NE,45,0.7,1.8,42,0.00,,,0.00,WUHU216HW,2013-04-26 14:28:00,
2013-04-26 10:30:00,59.8,37.1,30.40,NW,315,0.0,1.8,43,0.00,,,0.00,WUHU216HW,2013-04-26 14:30:00,
2013-04-26 10:31:00,59.8,37.1,30.40,West,270,0.7,1.8,43,0.00,,,0.00,WUHU216HW,2013-04-26 14:31:00,
2013-04-26 10:33:00,59.8,37.1,30.40,ESE,113,0.7,2.2,43,0.00,,,0.00,WUHU216HW,2013-04-26 14:33:00,
2013-04-26 10:34:00,59.8,37.1,30.40,ESE,113,0.7,2.2,43,0.00,,,0.00,WUHU216HW,2013-04-26 14:34:00,
2013-04-26 10:36:00,59.8,38.3,30.39,NW,315,0.0,2.2,45,0.00,,,0.00,WUHU216HW,2013-04-26 14:36:00,
2013-04-26 10:39:00,59.9,38.4,30.39,North,0,0.0,2.2,45,0.00,,,0.00,WUHU216HW,2013-04-26 14:39:00,
2013-04-26 10:40:00,59.9,39.0,30.39,North,0,0.0,2.2,46,0.00,,,0.00,WUHU216HW,2013-04-26 14:40:00,
2013-04-26 10:42:00,59.9,39.6,30.39,ENE,68,0.0,2.2,47,0.00,,,0.00,WUHU216HW,2013-04-26 14:42:00,
2013-04-26 10:44:00,60.3,39.3,30.39,NE,45,0.4,1.1,46,0.00,,,0.00,WUHU216HW,2013-04-26 14:44:00,
2013-04-26 10:45:00,60.3,38.8,30.39,East,90,0.2,1.1,45,0.00,,,0.00,WUHU216HW,2013-04-26 14:45:00,
2013-04-26 10:46:00,60.5,37.8,30.39,West,270,0.2,1.1,43,0.00,,,0.00,WUHU216HW,2013-04-26 14:46:00,
2013-04-26 10:47:00,60.5,37.8,30.39,WNW,293,0.0,1.1,43,0.00,,,0.00,WUHU216HW,2013-04-26 14:47:00,
2013-04-26 10:49:00,60.5,37.8,30.39,WNW,293,0.0,1.1,43,0.00,,,0.00,WUHU216HW,2013-04-26 14:49:00,
2013-04-26 10:51:00,60.7,36.2,30.39,West,270,2.0,2.0,40,0.00,,,0.00,WUHU216HW,2013-04-26 14:51:00,
2013-04-26 10:52:00,60.5,37.2,30.39,NW,315,0.0,2.0,42,0.00,,,0.00,WUHU216HW,2013-04-26 14:52:00,
2013-04-26 10:53:00,60.5,37.2,30.39,NW,315,0.0,2.0,42,0.00,,,0.00,WUHU216HW,2013-04-26 14:53:00,
2013-04-26 10:54:00,60.5,36.6,30.39,ESE,113,1.8,2.2,41,0.00,,,0.00,WUHU216HW,2013-04-26 14:54:00,
2013-04-26 10:55:00,60.5,37.2,30.39,SE,135,1.8,2.2,42,0.00,,,0.00,WUHU216HW,2013-04-26 14:55:00,
2013-04-26 10:56:00,60.5,36.0,30.39,East,90,2.0,2.2,40,0.00,,,0.00,WUHU216HW,2013-04-26 14:56:00,
2013-04-26 10:58:00,60.3,37.0,30.39,ESE,113,1.3,2.2,42,0.00,,,0.00,WUHU216HW,2013-04-26 14:58:00,
2013-04-26 11:00:00,60.1,37.4,30.39,ESE,113,0.4,2.2,43,0.00,,,0.00,WUHU216HW,2013-04-26 15:00:00,
2013-04-26 11:01:00,60.1,35.7,30.39,ESE,113,1.6,2.2,40,0.00,,,0.00,WUHU216HW,2013-04-26 15:01:00,
2013-04-26 11:03:00,60.3,37.6,30.39,SSE,158,1.3,2.2,43,0.00,,,0.00,WUHU216HW,2013-04-26 15:03:00,
2013-04-26 11:05:00,60.5,36.6,30.39,ESE,113,1.1,2.2,41,0.00,,,0.00,WUHU216HW,2013-04-26 15:05:00,
2013-04-26 11:06:00,60.5,37.2,30.39,SE,135,2.5,2.5,42,0.00,,,0.00,WUHU216HW,2013-04-26 15:06:00,
2013-04-26 11:07:00,60.5,36.6,30.39,ESE,113,0.7,3.4,41,0.00,,,0.00,WUHU216HW,2013-04-26 15:07:00,
2013-04-26 11:09:00,60.5,37.8,30.39,ESE,113,1.3,3.4,43,0.00,,,0.00,WUHU216HW,2013-04-26 15:09:00,
2013-04-26 11:11:00,60.7,37.4,30.39,SE,135,3.4,3.4,42,0.00,,,0.00,WUHU216HW,2013-04-26 15:11:00,
2013-04-26 11:13:00,60.5,36.0,30.39,SE,135,2.5,3.8,40,0.00,,,0.00,WUHU216HW,2013-04-26 15:13:00,
2013-04-26 11:14:00,60.5,36.0,30.39,ESE,113,2.0,3.8,40,0.00,,,0.00,WUHU216HW,2013-04-26 15:14:00,
2013-04-26 11:17:00,60.1,35.7,30.39,SE,135,1.8,4.0,40,0.00,,,0.00,WUHU216HW,2013-04-26 15:17:00,
2013-04-26 11:18:00,60.1,36.9,30.39,SE,135,1.1,4.0,42,0.00,,,0.00,WUHU216HW,2013-04-26 15:18:00,
2013-04-26 11:19:00,60.1,36.3,30.39,ESE,113,0.2,4.0,41,0.00,,,0.00,WUHU216HW,2013-04-26 15:19:00,
2013-04-26 11:20:00,60.3,37.0,30.39,East,90,0.2,4.0,42,0.00,,,0.00,WUHU216HW,2013-04-26 15:20:00,
2013-04-26 11:22:00,60.5,37.8,30.39,East,90,2.2,4.0,43,0.00,,,0.00,WUHU216HW,2013-04-26 15:22:00,
2013-04-26 11:23:00,60.7,36.8,30.39,ESE,113,1.1,4.0,41,0.00,,,0.00,WUHU216HW,2013-04-26 15:23:00,
2013-04-26 11:24:00,60.8,36.9,30.39,SE,135,1.6,4.0,41,0.00,,,0.00,WUHU216HW,2013-04-26 15:24:00,
2013-04-26 11:26:00,60.8,36.9,30.39,ESE,113,2.5,2.5,41,0.00,,,0.00,WUHU216HW,2013-04-26 15:26:00,
2013-04-26 11:28:00,61.0,37.1,30.38,SE,135,0.7,2.5,41,0.00,,,0.00,WUHU216HW,2013-04-26 15:28:00,
2013-04-26 11:29:00,61.2,37.8,30.38,ESE,113,0.9,2.5,42,0.00,,,0.00,WUHU216HW,2013-04-26 15:29:00,
2013-04-26 11:30:00,61.2,37.8,30.38,ESE,113,0.7,2.5,42,0.00,,,0.00,WUHU216HW,2013-04-26 15:30:00,
2013-04-26 11:31:00,61.2,37.3,30.39,South,180,1.1,2.5,41,0.00,,,0.00,WUHU216HW,2013-04-26 15:31:00,
2013-04-26 11:33:00,61.4,37.5,30.38,SE,135,2.5,2.5,41,0.00,,,0.00,WUHU216HW,2013-04-26 15:33:00,
2013-04-26 11:34:00,61.4,36.8,30.38,ESE,113,2.7,2.7,40,0.00,,,0.00,WUHU216HW,2013-04-26 15:34:00,
2013-04-26 11:35:00,61.2,36.7,30.38,ESE,113,1.1,2.7,40,0.00,,,0.00,WUHU216HW,2013-04-26 15:35:00,
2013-04-26 11:37:00,61.2,37.3,30.38,SE,135,2.0,2.7,41,0.00,,,0.00,WUHU216HW,2013-04-26 15:37:00,
2013-04-26 11:38:00,61.2,36.7,30.38,SE,135,1.6,2.7,40,0.00,,,0.00,WUHU216HW,2013-04-26 15:38:00,
2013-04-26 11:40:00,61.2,36.7,30.38,ESE,113,2.5,3.1,40,0.00,,,0.00,WUHU216HW,2013-04-26 15:40:00,
2013-04-26 11:41:00,61.0,37.1,30.38,SE,135,1.8,3.4,41,0.00,,,0.00,WUHU216HW,2013-04-26 15:41:00,
2013-04-26 11:42:00,61.0,37.1,30.38,East,90,2.5,3.4,41,0.00,,,0.00,WUHU216HW,2013-04-26 15:42:00,
2013-04-26 11:43:00,61.0,38.3,30.38,ESE,113,1.8,3.4,43,0.00,,,0.00,WUHU216HW,2013-04-26 15:43:00,
2013-04-26 11:46:00,61.0,37.7,30.38,ESE,113,1.8,3.4,42,0.00,,,0.00,WUHU216HW,2013-04-26 15:46:00,
2013-04-26 11:47:00,61.0,38.3,30.38,SE,135,0.4,3.4,43,0.00,,,0.00,WUHU216HW,2013-04-26 15:47:00,
2013-04-26 11:49:00,61.2,38.4,30.38,ESE,113,0.0,3.4,43,0.00,,,0.00,WUHU216HW,2013-04-26 15:49:00,
2013-04-26 11:51:00,61.4,38.6,30.38,ESE,113,0.2,3.4,43,0.00,,,0.00,WUHU216HW,2013-04-26 15:51:00,
2013-04-26 11:53:00,61.7,38.4,30.38,ESE,113,0.4,3.4,42,0.00,,,0.00,WUHU216HW,2013-04-26 15:53:00,
2013-04-26 11:54:00,61.9,39.1,30.38,SE,135,2.0,2.9,43,0.00,,,0.00,WUHU216HW,2013-04-26 15:54:00,
2013-04-26 11:57:00,62.1,37.5,30.38,ESE,113,1.1,2.9,40,0.00,,,0.00,WUHU216HW,2013-04-26 15:57:00,
2013-04-26 11:59:00,62.3,36.2,30.38,ESE,113,0.9,2.9,38,0.00,,,0.00,WUHU216HW,2013-04-26 15:59:00,
2013-04-26 12:01:00,62.5,37.8,30.38,WNW,293,0.2,2.9,40,0.00,,,0.00,WUHU216HW,2013-04-26 16:01:00,
2013-04-26 12:02:00,62.6,38.0,30.38,East,90,0.2,2.9,40,0.00,,,0.00,WUHU216HW,2013-04-26 16:02:00,
2013-04-26 12:03:00,62.6,38.0,30.38,East,90,1.6,2.9,40,0.00,,,0.00,WUHU216HW,2013-04-26 16:03:00,
2013-04-26 12:04:00,62.8,37.5,30.38,West,270,0.9,2.7,39,0.00,,,0.00,WUHU216HW,2013-04-26 16:04:00,
2013-04-26 12:05:00,62.8,36.0,30.38,WNW,293,0.4,2.7,37,0.00,,,0.00,WUHU216HW,2013-04-26 16:05:00,
2013-04-26 12:07:00,62.6,35.8,30.38,SE,135,2.5,2.7,37,0.00,,,0.00,WUHU216HW,2013-04-26 16:07:00,
2013-04-26 12:08:00,62.6,36.5,30.38,SE,135,2.0,2.7,38,0.00,,,0.00,WUHU216HW,2013-04-26 16:08:00,
2013-04-26 12:09:00,62.5,36.4,30.38,SE,135,0.4,2.7,38,0.00,,,0.00,WUHU216HW,2013-04-26 16:09:00,
2013-04-26 12:10:00,62.5,36.4,30.38,East,90,0.4,2.7,38,0.00,,,0.00,WUHU216HW,2013-04-26 16:10:00,
2013-04-26 12:11:00,62.5,37.1,30.37,East,90,0.0,2.7,39,0.00,,,0.00,WUHU216HW,2013-04-26 16:11:00,
2013-04-26 12:12:00,62.5,37.8,30.37,SE,135,0.4,2.7,40,0.00,,,0.00,WUHU216HW,2013-04-26 16:12:00,
2013-04-26 12:15:00,63.0,39.4,30.37,ESE,113,0.0,2.5,42,0.00,,,0.00,WUHU216HW,2013-04-26 16:15:00,
2013-04-26 12:17:00,63.5,40.5,30.37,WNW,293,0.4,2.5,43,0.00,,,0.00,WUHU216HW,2013-04-26 16:17:00,
2013-04-26 12:18:00,63.7,40.7,30.37,WNW,293,0.2,2.5,43,0.00,,,0.00,WUHU216HW,2013-04-26 16:18:00,
2013-04-26 12:20:00,64.1,40.4,30.37,NNW,338,0.0,1.1,42,0.00,,,0.00,WUHU216HW,2013-04-26 16:20:00,
2013-04-26 12:21:00,64.4,40.8,30.37,NNW,338,0.0,1.1,42,0.00,,,0.00,WUHU216HW,2013-04-26 16:21:00,
2013-04-26 12:22:00,64.4,41.3,30.37,ENE,68,0.4,1.1,43,0.00,,,0.00,WUHU216HW,2013-04-26 16:22:00,
2013-04-26 12:23:00,64.4,40.8,30.37,ENE,68,0.0,1.1,42,0.00,,,0.00,WUHU216HW,2013-04-26 16:23:00,
2013-04-26 12:24:00,64.6,41.0,30.37,ENE,68,0.0,1.1,42,0.00,,,0.00,WUHU216HW,2013-04-26 16:24:00,
2013-04-26 12:25:00,64.8,41.0,30.36,ENE,68,0.2,1.1,42,0.00,,,0.00,WUHU216HW,2013-04-26 16:25:00,
2013-04-26 12:26:00,64.8,41.0,30.36,NNW,338,0.4,1.1,42,0.00,,,0.00,WUHU216HW,2013-04-26 16:26:00,
2013-04-26 12:28:00,64.8,38.5,30.37,SW,225,0.0,1.1,38,0.00,,,0.00,WUHU216HW,2013-04-26 16:28:00,
2013-04-26 12:29:00,64.6,38.4,30.36,WNW,293,0.2,1.1,38,0.00,,,0.00,WUHU216HW,2013-04-26 16:29:00,
2013-04-26 12:30:00,64.6,38.4,30.36,WNW,293,0.2,1.1,38,0.00,,,0.00,WUHU216HW,2013-04-26 16:30:00,
2013-04-26 12:31:00,64.4,38.2,30.37,West,270,0.7,1.1,38,0.00,,,0.00,WUHU216HW,2013-04-26 16:31:00,
2013-04-26 12:33:00,64.4,38.9,30.37,SSE,158,0.2,1.1,39,0.00,,,0.00,WUHU216HW,2013-04-26 16:33:00,
2013-04-26 12:35:00,64.4,38.2,30.37,ENE,68,0.0,1.3,38,0.00,,,0.00,WUHU216HW,2013-04-26 16:35:00,
2013-04-26 12:36:00,64.4,39.6,30.37,ENE,68,0.0,1.3,40,0.00,,,0.00,WUHU216HW,2013-04-26 16:36:00,
2013-04-26 12:37:00,64.4,40.1,30.37,WNW,293,0.4,1.3,41,0.00,,,0.00,WUHU216HW,2013-04-26 16:37:00,
2013-04-26 12:38:00,64.6,40.3,30.36,West,270,0.7,1.3,41,0.00,,,0.00,WUHU216HW,2013-04-26 16:38:00,
2013-04-26 12:40:00,64.8,39.3,30.36,NNE,23,1.1,1.3,39,0.00,,,0.00,WUHU216HW,2013-04-26 16:40:00,
2013-04-26 12:41:00,64.8,39.3,30.36,NW,315,0.2,1.3,39,0.00,,,0.00,WUHU216HW,2013-04-26 16:41:00,
2013-04-26 12:42:00,64.8,37.1,30.36,West,270,1.1,1.6,36,0.00,,,0.00,WUHU216HW,2013-04-26 16:42:00,
2013-04-26 12:44:00,64.6,38.4,30.36,West,270,0.7,1.6,38,0.00,,,0.00,WUHU216HW,2013-04-26 16:44:00,
2013-04-26 12:45:00,64.8,38.5,30.36,NNW,338,0.4,1.6,38,0.00,,,0.00,WUHU216HW,2013-04-26 16:45:00,
2013-04-26 12:46:00,64.8,38.5,30.36,ENE,68,0.4,1.6,38,0.00,,,0.00,WUHU216HW,2013-04-26 16:46:00,
2013-04-26 12:47:00,64.8,38.5,30.36,East,90,0.9,1.6,38,0.00,,,0.00,WUHU216HW,2013-04-26 16:47:00,
2013-04-26 12:49:00,64.8,37.1,30.36,SSW,203,0.7,1.6,36,0.00,,,0.00,WUHU216HW,2013-04-26 16:49:00,
2013-04-26 12:50:00,64.8,37.1,30.36,SSE,158,0.2,1.6,36,0.00,,,0.00,WUHU216HW,2013-04-26 16:50:00,
2013-04-26 12:51:00,64.8,37.8,30.35,West,270,0.2,1.6,37,0.00,,,0.00,WUHU216HW,2013-04-26 16:51:00,
2013-04-26 13:03:00,64.8,37.8,30.35,West,270,0.0,0.0,37,0.00,,,0.00,WUHU216HW,2013-04-26 17:03:00,
2013-04-26 13:04:00,64.8,37.8,30.35,West,270,0.0,0.0,37,0.00,,,0.00,WUHU216HW,2013-04-26 17:04:00,
2013-04-26 13:05:00,64.8,37.8,30.35,West,270,0.0,0.0,37,0.00,,,0.00,WUHU216HW,2013-04-26 17:05:00,
2013-04-26 13:08:00,64.8,37.8,30.35,West,270,0.0,0.0,37,0.00,,,0.00,WUHU216HW,2013-04-26 17:08:00,
2013-04-26 13:09:00,64.8,37.8,30.35,West,270,0.0,0.0,37,0.00,,,0.00,WUHU216HW,2013-04-26 17:09:00,
2013-04-26 13:10:00,64.8,37.8,30.35,West,270,0.0,0.0,37,0.00,,,0.00,WUHU216HW,2013-04-26 17:10:00,
2013-04-26 13:11:00,64.8,37.8,30.35,West,270,0.0,0.0,37,0.00,,,0.00,WUHU216HW,2013-04-26 17:11:00,
2013-04-26 14:00:00,66.1,38.9,30.34,NNW,338,0.4,0.4,37,0.00,,,0.00,WUHU216HW,2013-04-26 18:00:00,
2013-04-26 14:01:00,66.1,38.2,30.34,NE,45,0.4,0.9,36,0.00,,,0.00,WUHU216HW,2013-04-26 18:01:00,
2013-04-26 14:05:00,66.2,39.1,30.34,NNW,338,0.2,0.9,37,0.00,,,0.00,WUHU216HW,2013-04-26 18:05:00,
2013-04-26 14:06:00,66.2,39.1,30.34,NNW,338,0.2,0.9,37,0.00,,,0.00,WUHU216HW,2013-04-26 18:06:00,
2013-04-26 14:07:00,66.4,38.5,30.34,WNW,293,0.0,1.1,36,0.00,,,0.00,WUHU216HW,2013-04-26 18:07:00,
2013-04-26 14:08:00,66.4,39.3,30.34,West,270,0.7,1.1,37,0.00,,,0.00,WUHU216HW,2013-04-26 18:08:00,
2013-04-26 14:11:00,66.6,37.2,30.34,NW,315,0.9,1.1,34,0.00,,,0.00,WUHU216HW,2013-04-26 18:11:00,
2013-04-26 14:12:00,66.4,37.1,30.34,WNW,293,0.7,2.5,34,0.00,,,0.00,WUHU216HW,2013-04-26 18:12:00,
2013-04-26 14:13:00,66.4,37.8,30.34,NNW,338,0.2,2.5,35,0.00,,,0.00,WUHU216HW,2013-04-26 18:13:00,
2013-04-26 14:17:00,66.2,39.8,30.34,North,0,0.4,2.5,38,0.00,,,0.00,WUHU216HW,2013-04-26 18:17:00,
2013-04-26 14:18:00,66.2,37.6,30.34,WNW,293,0.7,2.5,35,0.00,,,0.00,WUHU216HW,2013-04-26 18:18:00,
2013-04-26 14:19:00,66.2,36.9,30.34,NW,315,1.6,2.5,34,0.00,,,0.00,WUHU216HW,2013-04-26 18:19:00,
2013-04-26 14:22:00,66.2,38.3,30.34,WNW,293,0.4,1.6,36,0.00,,,0.00,WUHU216HW,2013-04-26 18:22:00,
2013-04-26 14:23:00,66.2,39.1,30.34,NNW,338,0.0,1.6,37,0.00,,,0.00,WUHU216HW,2013-04-26 18:23:00,
2013-04-26 14:24:00,66.4,39.3,30.34,NE,45,0.7,1.6,37,0.00,,,0.00,WUHU216HW,2013-04-26 18:24:00,
2013-04-26 14:28:00,66.6,39.3,30.34,NE,45,0.0,1.8,37,0.00,,,0.00,WUHU216HW,2013-04-26 18:28:00,
2013-04-26 14:29:00,66.6,37.9,30.34,West,270,0.7,1.8,35,0.00,,,0.00,WUHU216HW,2013-04-26 18:29:00,
2013-04-26 14:30:00,66.6,38.6,30.34,North,0,0.2,1.8,36,0.00,,,0.00,WUHU216HW,2013-04-26 18:30:00,
2013-04-26 14:32:00,66.6,39.3,30.34,North,0,0.2,1.8,37,0.00,,,0.00,WUHU216HW,2013-04-26 18:32:00,
2013-04-26 14:34:00,66.6,38.6,30.34,NW,315,0.0,1.8,36,0.00,,,0.00,WUHU216HW,2013-04-26 18:34:00,
2013-04-26 14:36:00,66.6,37.2,30.34,ESE,113,0.4,2.5,34,0.00,,,0.00,WUHU216HW,2013-04-26 18:36:00,
2013-04-26 14:37:00,66.6,36.5,30.34,West,270,0.9,2.5,33,0.00,,,0.00,WUHU216HW,2013-04-26 18:37:00,
2013-04-26 14:39:00,66.8,37.4,30.34,NNW,338,0.9,2.5,34,0.00,,,0.00,WUHU216HW,2013-04-26 18:39:00,
2013-04-26 14:41:00,66.6,39.3,30.34,NW,315,0.0,2.5,37,0.00,,,0.00,WUHU216HW,2013-04-26 18:41:00,
2013-04-26 14:43:00,66.6,37.2,30.34,WNW,293,0.4,2.5,34,0.00,,,0.00,WUHU216HW,2013-04-26 18:43:00,
2013-04-26 14:44:00,66.8,38.1,30.34,WNW,293,0.2,2.5,35,0.00,,,0.00,WUHU216HW,2013-04-26 18:44:00,
2013-04-26 14:45:00,66.6,38.6,30.34,NE,45,0.0,2.5,36,0.00,,,0.00,WUHU216HW,2013-04-26 18:45:00,
2013-04-26 14:46:00,67.0,39.0,30.34,ESE,113,0.9,1.3,36,0.00,,,0.00,WUHU216HW,2013-04-26 18:46:00,
2013-04-26 14:49:00,67.0,38.3,30.33,ENE,68,0.4,1.8,35,0.00,,,0.00,WUHU216HW,2013-04-26 18:49:00,
2013-04-26 14:50:00,67.0,39.0,30.33,SSE,158,0.2,1.8,36,0.00,,,0.00,WUHU216HW,2013-04-26 18:50:00,
2013-04-26 14:51:00,67.0,36.1,30.33,WNW,293,1.6,1.8,32,0.00,,,0.00,WUHU216HW,2013-04-26 18:51:00,
2013-04-26 14:52:00,67.0,37.5,30.33,WNW,293,0.0,1.8,34,0.00,,,0.00,WUHU216HW,2013-04-26 18:52:00,
2013-04-26 14:55:00,67.1,37.6,30.33,West,270,0.7,1.8,34,0.00,,,0.00,WUHU216HW,2013-04-26 18:55:00,
2013-04-26 14:56:00,67.1,36.2,30.33,WNW,293,1.1,1.8,32,0.00,,,0.00,WUHU216HW,2013-04-26 18:56:00,
2013-04-26 14:57:00,67.1,37.6,30.33,NE,45,0.0,1.8,34,0.00,,,0.00,WUHU216HW,2013-04-26 18:57:00,
2013-04-26 15:00:00,67.3,40.0,30.33,NE,45,0.0,1.8,37,0.00,,,0.00,WUHU216HW,2013-04-26 19:00:00,
2013-04-26 15:01:00,67.3,40.0,30.33,SE,135,0.7,1.1,37,0.00,,,0.00,WUHU216HW,2013-04-26 19:01:00,
2013-04-26 15:02:00,67.3,38.5,30.33,West,270,0.7,1.1,35,0.00,,,0.00,WUHU216HW,2013-04-26 19:02:00,
2013-04-26 15:06:00,67.3,37.1,30.33,North,0,0.4,1.8,33,0.00,,,0.00,WUHU216HW,2013-04-26 19:06:00,
2013-04-26 15:07:00,67.1,36.9,30.33,West,270,0.2,1.8,33,0.00,,,0.00,WUHU216HW,2013-04-26 19:07:00,
2013-04-26 15:08:00,67.1,36.2,30.33,WNW,293,1.3,1.8,32,0.00,,,0.00,WUHU216HW,2013-04-26 19:08:00,
2013-04-26 15:09:00,67.1,36.2,30.33,ESE,113,3.8,3.8,32,0.00,,,0.00,WUHU216HW,2013-04-26 19:09:00,
2013-04-26 15:12:00,67.0,36.8,30.33,WNW,293,0.0,3.8,33,0.00,,,0.00,WUHU216HW,2013-04-26 19:12:00,
2013-04-26 15:13:00,67.0,37.5,30.33,West,270,0.0,3.8,34,0.00,,,0.00,WUHU216HW,2013-04-26 19:13:00,
2013-04-26 15:14:00,67.0,37.5,30.32,West,270,0.0,3.8,34,0.00,,,0.00,WUHU216HW,2013-04-26 19:14:00,
2013-04-26 15:17:00,67.3,40.0,30.32,NNE,23,0.2,3.8,37,0.00,,,0.00,WUHU216HW,2013-04-26 19:17:00,
2013-04-26 15:19:00,67.3,37.8,30.32,NW,315,0.2,2.0,34,0.00,,,0.00,WUHU216HW,2013-04-26 19:19:00,
2013-04-26 15:20:00,67.3,38.5,30.32,NNE,23,0.4,2.0,35,0.00,,,0.00,WUHU216HW,2013-04-26 19:20:00,
2013-04-26 15:22:00,67.5,40.1,30.32,NNW,338,0.2,0.4,37,0.00,,,0.00,WUHU216HW,2013-04-26 19:22:00,
2013-04-26 15:25:00,67.3,40.0,30.32,NNW,338,0.2,0.4,37,0.00,,,0.00,WUHU216HW,2013-04-26 19:25:00,
2013-04-26 15:27:00,67.5,40.1,30.32,NNW,338,0.0,0.4,37,0.00,,,0.00,WUHU216HW,2013-04-26 19:27:00,
2013-04-26 15:31:00,67.7,39.6,30.33,NW,315,0.4,2.2,36,0.00,,,0.00,WUHU216HW,2013-04-26 19:31:00,
2013-04-26 15:32:00,67.7,38.9,30.32,SSE,158,0.4,2.2,35,0.00,,,0.00,WUHU216HW,2013-04-26 19:32:00,
2013-04-26 15:33:00,67.7,38.9,30.32,NNW,338,0.4,2.2,35,0.00,,,0.00,WUHU216HW,2013-04-26 19:33:00,
2013-04-26 15:36:00,67.7,38.1,30.32,NW,315,0.0,2.2,34,0.00,,,0.00,WUHU216HW,2013-04-26 19:36:00,
2013-04-26 15:37:00,67.7,38.1,30.32,WNW,293,0.2,2.2,34,0.00,,,0.00,WUHU216HW,2013-04-26 19:37:00,
2013-04-26 15:38:00,67.5,38.0,30.32,NW,315,0.0,2.2,34,0.00,,,0.00,WUHU216HW,2013-04-26 19:38:00,
2013-04-26 15:39:00,67.5,38.0,30.32,NW,315,0.4,2.2,34,0.00,,,0.00,WUHU216HW,2013-04-26 19:39:00,
2013-04-26 15:42:00,67.5,38.7,30.33,North,0,0.0,1.1,35,0.00,,,0.00,WUHU216HW,2013-04-26 19:42:00,
2013-04-26 15:43:00,67.5,39.4,30.33,North,0,0.0,1.1,36,0.00,,,0.00,WUHU216HW,2013-04-26 19:43:00,
2013-04-26 15:44:00,67.7,38.9,30.33,NW,315,0.9,0.9,35,0.00,,,0.00,WUHU216HW,2013-04-26 19:44:00,
2013-04-26 15:48:00,67.5,38.7,30.33,NNW,338,0.4,1.1,35,0.00,,,0.00,WUHU216HW,2013-04-26 19:48:00,
2013-04-26 15:49:00,67.5,38.7,30.32,NE,45,0.4,1.1,35,0.00,,,0.00,WUHU216HW,2013-04-26 19:49:00,
2013-04-26 15:50:00,67.7,38.9,30.32,WNW,293,0.0,1.1,35,0.00,,,0.00,WUHU216HW,2013-04-26 19:50:00,
2013-04-26 15:51:00,67.7,40.3,30.32,NE,45,0.2,1.1,37,0.00,,,0.00,WUHU216HW,2013-04-26 19:51:00,
2013-04-26 15:54:00,67.9,40.5,30.32,East,90,0.2,1.1,37,0.00,,,0.00,WUHU216HW,2013-04-26 19:54:00,
2013-04-26 15:55:00,67.9,38.3,30.32,NNW,338,0.4,1.1,34,0.00,,,0.00,WUHU216HW,2013-04-26 19:55:00,
2013-04-26 15:56:00,67.9,39.0,30.32,NW,315,0.4,1.1,35,0.00,,,0.00,WUHU216HW,2013-04-26 19:56:00,
2013-04-26 15:59:00,67.7,40.3,30.33,NW,315,0.0,1.1,37,0.00,,,0.00,WUHU216HW,2013-04-26 19:59:00,
2013-04-26 16:00:00,67.7,40.3,30.32,NE,45,0.0,1.1,37,0.00,,,0.00,WUHU216HW,2013-04-26 20:00:00,
2013-04-26 16:02:00,67.9,39.0,30.33,NW,315,0.0,1.1,35,0.00,,,0.00,WUHU216HW,2013-04-26 20:02:00,
2013-04-26 16:03:00,67.9,38.3,30.32,WSW,248,0.2,1.1,34,0.00,,,0.00,WUHU216HW,2013-04-26 20:03:00,
2013-04-26 16:05:00,67.9,39.0,30.32,ESE,113,0.4,1.1,35,0.00,,,0.00,WUHU216HW,2013-04-26 20:05:00,
2013-04-26 16:06:00,67.9,39.0,30.32,SE,135,1.1,1.1,35,0.00,,,0.00,WUHU216HW,2013-04-26 20:06:00,
2013-04-26 16:08:00,67.9,39.0,30.32,East,90,1.1,1.1,35,0.00,,,0.00,WUHU216HW,2013-04-26 20:08:00,
2013-04-26 16:09:00,67.9,39.0,30.32,ESE,113,0.4,1.1,35,0.00,,,0.00,WUHU216HW,2013-04-26 20:09:00,
2013-04-26 16:10:00,67.7,38.9,30.32,ESE,113,4.3,4.3,35,0.00,,,0.00,WUHU216HW,2013-04-26 20:10:00,
2013-04-26 16:11:00,67.7,38.1,30.32,SE,135,3.1,4.7,34,0.00,,,0.00,WUHU216HW,2013-04-26 20:11:00,
2013-04-26 16:13:00,67.3,37.8,30.32,SE,135,2.7,4.7,34,0.00,,,0.00,WUHU216HW,2013-04-26 20:13:00,
2013-04-26 16:15:00,67.0,37.5,30.32,East,90,1.1,4.7,34,0.00,,,0.00,WUHU216HW,2013-04-26 20:15:00,
2013-04-26 16:16:00,67.0,38.3,30.32,ESE,113,2.5,4.7,35,0.00,,,0.00,WUHU216HW,2013-04-26 20:16:00,
2013-04-26 16:18:00,67.0,39.0,30.32,SE,135,0.4,4.7,36,0.00,,,0.00,WUHU216HW,2013-04-26 20:18:00,
2013-04-26 16:20:00,67.0,37.5,30.32,WNW,293,0.7,4.7,34,0.00,,,0.00,WUHU216HW,2013-04-26 20:20:00,
2013-04-26 16:21:00,67.0,38.3,30.33,ESE,113,1.1,4.0,35,0.00,,,0.00,WUHU216HW,2013-04-26 20:21:00,
2013-04-26 16:23:00,67.1,38.4,30.32,SE,135,0.4,2.5,35,0.00,,,0.00,WUHU216HW,2013-04-26 20:23:00,
2013-04-26 16:24:00,67.1,38.4,30.32,East,90,1.1,2.5,35,0.00,,,0.00,WUHU216HW,2013-04-26 20:24:00,
2013-04-26 16:26:00,67.3,37.1,30.32,West,270,0.4,1.8,33,0.00,,,0.00,WUHU216HW,2013-04-26 20:26:00,
2013-04-26 16:27:00,67.3,37.8,30.32,SSE,158,0.7,1.8,34,0.00,,,0.00,WUHU216HW,2013-04-26 20:27:00,
2013-04-26 16:29:00,67.3,38.5,30.32,ESE,113,0.4,1.8,35,0.00,,,0.00,WUHU216HW,2013-04-26 20:29:00,
2013-04-26 16:30:00,67.3,38.5,30.32,NE,45,0.2,1.8,35,0.00,,,0.00,WUHU216HW,2013-04-26 20:30:00,
2013-04-26 16:32:00,67.5,38.7,30.32,NNW,338,0.4,1.8,35,0.00,,,0.00,WUHU216HW,2013-04-26 20:32:00,
2013-04-26 16:35:00,67.3,37.8,30.32,West,270,0.4,2.0,34,0.00,,,0.00,WUHU216HW,2013-04-26 20:35:00,
2013-04-26 16:37:00,67.5,38.0,30.32,West,270,0.7,2.0,34,0.00,,,0.00,WUHU216HW,2013-04-26 20:37:00,
2013-04-26 16:38:00,67.5,38.7,30.32,SE,135,0.7,2.0,35,0.00,,,0.00,WUHU216HW,2013-04-26 20:38:00,
2013-04-26 16:39:00,67.5,38.7,30.32,ESE,113,0.7,2.0,35,0.00,,,0.00,WUHU216HW,2013-04-26 20:39:00,
2013-04-26 16:41:00,67.5,38.0,30.32,West,270,1.1,2.0,34,0.00,,,0.00,WUHU216HW,2013-04-26 20:41:00,
2013-04-26 16:42:00,67.5,37.3,30.32,ESE,113,1.8,2.0,33,0.00,,,0.00,WUHU216HW,2013-04-26 20:42:00,
2013-04-26 16:44:00,67.5,36.5,30.32,West,270,1.1,2.5,32,0.00,,,0.00,WUHU216HW,2013-04-26 20:44:00,
2013-04-26 16:45:00,67.3,36.4,30.32,West,270,0.7,2.5,32,0.00,,,0.00,WUHU216HW,2013-04-26 20:45:00,
2013-04-26 16:47:00,67.3,37.8,30.32,SE,135,0.9,2.5,34,0.00,,,0.00,WUHU216HW,2013-04-26 20:47:00,
2013-04-26 16:48:00,67.3,37.8,30.32,East,90,1.3,2.5,34,0.00,,,0.00,WUHU216HW,2013-04-26 20:48:00,
2013-04-26 16:49:00,67.3,37.8,30.32,ESE,113,0.4,2.5,34,0.00,,,0.00,WUHU216HW,2013-04-26 20:49:00,
2013-04-26 16:51:00,67.1,36.2,30.32,West,270,1.6,2.5,32,0.00,,,0.00,WUHU216HW,2013-04-26 20:51:00,
2013-04-26 16:52:00,67.1,36.9,30.31,ESE,113,0.9,1.8,33,0.00,,,0.00,WUHU216HW,2013-04-26 20:52:00,
2013-04-26 16:53:00,67.1,37.6,30.31,ESE,113,0.9,1.8,34,0.00,,,0.00,WUHU216HW,2013-04-26 20:53:00,
2013-04-26 16:55:00,67.0,38.3,30.31,SE,135,1.8,3.1,35,0.00,,,0.00,WUHU216HW,2013-04-26 20:55:00,
2013-04-26 16:56:00,66.8,37.4,30.32,ENE,68,0.0,3.1,34,0.00,,,0.00,WUHU216HW,2013-04-26 20:56:00,
2013-04-26 16:58:00,67.0,39.0,30.31,ESE,113,1.8,3.1,36,0.00,,,0.00,WUHU216HW,2013-04-26 20:58:00,
2013-04-26 16:59:00,67.0,38.3,30.32,ESE,113,0.7,3.1,35,0.00,,,0.00,WUHU216HW,2013-04-26 20:59:00,
2013-04-26 17:01:00,67.1,38.4,30.32,SE,135,0.2,3.1,35,0.00,,,0.00,WUHU216HW,2013-04-26 21:01:00,
2013-04-26 17:02:00,67.1,38.4,30.32,North,0,0.4,3.1,35,0.00,,,0.00,WUHU216HW,2013-04-26 21:02:00,
2013-04-26 17:03:00,67.1,36.9,30.32,WNW,293,0.4,3.1,33,0.00,,,0.00,WUHU216HW,2013-04-26 21:03:00,
2013-04-26 17:04:00,67.1,36.9,30.32,West,270,0.0,2.5,33,0.00,,,0.00,WUHU216HW,2013-04-26 21:04:00,
2013-04-26 17:05:00,67.1,37.6,30.32,West,270,0.0,1.8,34,0.00,,,0.00,WUHU216HW,2013-04-26 21:05:00,
2013-04-26 17:06:00,67.1,37.6,30.31,WNW,293,1.1,1.8,34,0.00,,,0.00,WUHU216HW,2013-04-26 21:06:00,
2013-04-26 17:07:00,67.1,36.9,30.31,NNW,338,0.7,1.8,33,0.00,,,0.00,WUHU216HW,2013-04-26 21:07:00,
2013-04-26 17:09:00,67.1,36.9,30.31,WNW,293,0.7,1.8,33,0.00,,,0.00,WUHU216HW,2013-04-26 21:09:00,
2013-04-26 17:10:00,67.3,37.8,30.31,WNW,293,0.0,1.8,34,0.00,,,0.00,WUHU216HW,2013-04-26 21:10:00,
2013-04-26 17:11:00,67.3,37.8,30.31,East,90,0.0,1.8,34,0.00,,,0.00,WUHU216HW,2013-04-26 21:11:00,
2013-04-26 17:13:00,67.3,38.5,30.31,East,90,0.0,1.8,35,0.00,,,0.00,WUHU216HW,2013-04-26 21:13:00,
2013-04-26 17:15:00,67.3,38.5,30.32,NW,315,0.0,1.6,35,0.00,,,0.00,WUHU216HW,2013-04-26 21:15:00,
2013-04-26 17:17:00,67.3,37.8,30.31,NW,315,0.0,1.1,34,0.00,,,0.00,WUHU216HW,2013-04-26 21:17:00,
2013-04-26 17:19:00,67.3,37.1,30.31,NW,315,0.2,0.7,33,0.00,,,0.00,WUHU216HW,2013-04-26 21:19:00,
2013-04-26 17:20:00,67.3,37.1,30.31,West,270,0.4,1.8,33,0.00,,,0.00,WUHU216HW,2013-04-26 21:20:00,
2013-04-26 17:21:00,67.1,36.9,30.31,West,270,0.4,1.8,33,0.00,,,0.00,WUHU216HW,2013-04-26 21:21:00,
2013-04-26 17:22:00,67.0,36.8,30.31,WNW,293,0.4,1.8,33,0.00,,,0.00,WUHU216HW,2013-04-26 21:22:00,
2013-04-26 17:23:00,67.0,36.1,30.31,WSW,248,1.6,1.8,32,0.00,,,0.00,WUHU216HW,2013-04-26 21:23:00,
2013-04-26 17:24:00,67.0,37.5,30.31,North,0,0.9,1.8,34,0.00,,,0.00,WUHU216HW,2013-04-26 21:24:00,
2013-04-26 17:26:00,66.8,37.4,30.31,NW,315,0.9,1.8,34,0.00,,,0.00,WUHU216HW,2013-04-26 21:26:00,
2013-04-26 17:28:00,66.8,38.1,30.31,North,0,0.0,1.8,35,0.00,,,0.00,WUHU216HW,2013-04-26 21:28:00,
2013-04-26 17:29:00,66.8,37.4,30.31,North,0,0.0,1.8,34,0.00,,,0.00,WUHU216HW,2013-04-26 21:29:00,
2013-04-26 17:31:00,66.8,37.4,30.31,North,0,0.0,1.8,34,0.00,,,0.00,WUHU216HW,2013-04-26 21:31:00,
2013-04-26 17:33:00,67.0,39.0,30.31,NNE,23,0.2,1.8,36,0.00,,,0.00,WUHU216HW,2013-04-26 21:33:00,
2013-04-26 17:35:00,67.0,37.5,30.31,NNW,338,0.0,0.9,34,0.00,,,0.00,WUHU216HW,2013-04-26 21:35:00,
2013-04-26 17:36:00,67.0,38.3,30.31,ENE,68,0.9,0.9,35,0.00,,,0.00,WUHU216HW,2013-04-26 21:36:00,
2013-04-26 17:38:00,67.0,39.0,30.31,NNW,338,0.0,0.9,36,0.00,,,0.00,WUHU216HW,2013-04-26 21:38:00,
2013-04-26 17:39:00,67.0,36.8,30.31,WNW,293,0.7,0.9,33,0.00,,,0.00,WUHU216HW,2013-04-26 21:39:00,
2013-04-26 17:41:00,66.8,37.4,30.31,WNW,293,0.2,0.9,34,0.00,,,0.00,WUHU216HW,2013-04-26 21:41:00,
2013-04-26 17:42:00,66.8,37.4,30.31,WNW,293,0.0,0.9,34,0.00,,,0.00,WUHU216HW,2013-04-26 21:42:00,
2013-04-26 17:43:00,66.6,37.2,30.31,WNW,293,0.0,0.9,34,0.00,,,0.00,WUHU216HW,2013-04-26 21:43:00,
2013-04-26 17:45:00,66.8,38.1,30.31,WNW,293,0.4,0.9,35,0.00,,,0.00,WUHU216HW,2013-04-26 21:45:00,
2013-04-26 17:47:00,66.8,37.4,30.31,West,270,1.1,1.1,34,0.00,,,0.00,WUHU216HW,2013-04-26 21:47:00,
2013-04-26 17:49:00,67.0,37.5,30.31,SE,135,0.0,1.1,34,0.00,,,0.00,WUHU216HW,2013-04-26 21:49:00,
2013-04-26 17:50:00,66.8,37.4,30.31,ESE,113,0.7,1.1,34,0.00,,,0.00,WUHU216HW,2013-04-26 21:50:00,
2013-04-26 17:52:00,66.8,37.4,30.30,East,90,0.2,2.0,34,0.00,,,0.00,WUHU216HW,2013-04-26 21:52:00,
2013-04-26 17:55:00,66.6,37.2,30.31,ESE,113,0.9,2.0,34,0.00,,,0.00,WUHU216HW,2013-04-26 21:55:00,
2013-04-26 17:57:00,66.6,37.2,30.30,West,270,0.2,2.0,34,0.00,,,0.00,WUHU216HW,2013-04-26 21:57:00,
2013-04-26 18:00:00,66.6,37.2,30.30,West,270,0.0,2.0,34,0.00,,,0.00,WUHU216HW,2013-04-26 22:00:00,
2013-04-26 18:01:00,66.6,37.2,30.30,West,270,0.0,2.0,34,0.00,,,0.00,WUHU216HW,2013-04-26 22:01:00,
2013-04-26 18:02:00,66.6,37.2,30.31,West,270,0.2,1.1,34,0.00,,,0.00,WUHU216HW,2013-04-26 22:02:00,
2013-04-26 18:03:00,66.6,37.2,30.31,West,270,0.0,1.1,34,0.00,,,0.00,WUHU216HW,2013-04-26 22:03:00,
2013-04-26 18:05:00,66.4,37.8,30.30,West,270,0.0,1.1,35,0.00,,,0.00,WUHU216HW,2013-04-26 22:05:00,
2013-04-26 18:06:00,66.4,38.5,30.30,WNW,293,0.0,0.4,36,0.00,,,0.00,WUHU216HW,2013-04-26 22:06:00,
2013-04-26 18:07:00,66.4,38.5,30.30,WNW,293,0.0,0.4,36,0.00,,,0.00,WUHU216HW,2013-04-26 22:07:00,
2013-04-26 18:08:00,66.4,38.5,30.30,WNW,293,0.0,0.4,36,0.00,,,0.00,WUHU216HW,2013-04-26 22:08:00,
2013-04-26 18:10:00,66.4,38.5,30.30,NW,315,0.2,0.4,36,0.00,,,0.00,WUHU216HW,2013-04-26 22:10:00,
2013-04-26 18:12:00,66.4,40.0,30.30,East,90,0.0,0.4,38,0.00,,,0.00,WUHU216HW,2013-04-26 22:12:00,
2013-04-26 18:13:00,66.4,39.3,30.30,SE,135,0.2,0.9,37,0.00,,,0.00,WUHU216HW,2013-04-26 22:13:00,
2013-04-26 18:14:00,66.4,39.3,30.30,SE,135,0.0,0.9,37,0.00,,,0.00,WUHU216HW,2013-04-26 22:14:00,
2013-04-26 18:15:00,66.4,39.3,30.30,SE,135,0.0,0.9,37,0.00,,,0.00,WUHU216HW,2013-04-26 22:15:00,
2013-04-26 18:16:00,66.2,39.1,30.30,SE,135,0.0,0.9,37,0.00,,,0.00,WUHU216HW,2013-04-26 22:16:00,
2013-04-26 18:18:00,66.2,39.1,30.31,SE,135,0.0,0.9,37,0.00,,,0.00,WUHU216HW,2013-04-26 22:18:00,
2013-04-26 18:19:00,66.2,39.1,30.30,ESE,113,0.0,0.9,37,0.00,,,0.00,WUHU216HW,2013-04-26 22:19:00,
2013-04-26 18:20:00,66.4,39.3,30.30,ENE,68,0.0,0.9,37,0.00,,,0.00,WUHU216HW,2013-04-26 22:20:00,
2013-04-26 18:22:00,66.2,39.1,30.31,NNW,338,0.2,0.9,37,0.00,,,0.00,WUHU216HW,2013-04-26 22:22:00,
2013-04-26 18:23:00,66.2,39.1,30.31,NNW,338,0.0,0.9,37,0.00,,,0.00,WUHU216HW,2013-04-26 22:23:00,
2013-04-26 18:24:00,66.2,37.6,30.31,WNW,293,0.2,0.9,35,0.00,,,0.00,WUHU216HW,2013-04-26 22:24:00,
2013-04-26 18:26:00,66.1,36.7,30.31,WNW,293,0.0,0.9,34,0.00,,,0.00,WUHU216HW,2013-04-26 22:26:00,
2013-04-26 18:28:00,65.9,38.0,30.31,WNW,293,0.0,0.9,36,0.00,,,0.00,WUHU216HW,2013-04-26 22:28:00,
2013-04-26 18:30:00,65.9,38.0,30.31,NW,315,0.0,0.9,36,0.00,,,0.00,WUHU216HW,2013-04-26 22:30:00,
2013-04-26 18:31:00,65.7,38.6,30.31,NW,315,0.0,0.9,37,0.00,,,0.00,WUHU216HW,2013-04-26 22:31:00,
2013-04-26 18:32:00,65.7,38.6,30.31,NW,315,0.0,0.9,37,0.00,,,0.00,WUHU216HW,2013-04-26 22:32:00,
2013-04-26 18:34:00,65.7,38.6,30.31,NW,315,0.0,0.4,37,0.00,,,0.00,WUHU216HW,2013-04-26 22:34:00,
2013-04-26 18:35:00,65.7,38.6,30.31,NW,315,0.0,0.4,37,0.00,,,0.00,WUHU216HW,2013-04-26 22:35:00,
2013-04-26 18:36:00,65.7,38.6,30.31,NW,315,0.0,0.4,37,0.00,,,0.00,WUHU216HW,2013-04-26 22:36:00,
2013-04-26 18:38:00,65.7,38.6,30.31,NW,315,0.0,0.4,37,0.00,,,0.00,WUHU216HW,2013-04-26 22:38:00,
2013-04-26 18:40:00,65.7,38.6,30.31,ESE,113,0.0,0.7,37,0.00,,,0.00,WUHU216HW,2013-04-26 22:40:00,
2013-04-26 18:41:00,65.7,38.6,30.31,East,90,0.0,0.7,37,0.00,,,0.00,WUHU216HW,2013-04-26 22:41:00,
2013-04-26 18:44:00,65.5,37.7,30.31,NW,315,0.0,0.7,36,0.00,,,0.00,WUHU216HW,2013-04-26 22:44:00,
2013-04-26 18:45:00,65.5,36.3,30.31,East,90,0.9,0.9,34,0.00,,,0.00,WUHU216HW,2013-04-26 22:45:00,
2013-04-26 18:46:00,65.5,37.7,30.31,East,90,0.0,0.9,36,0.00,,,0.00,WUHU216HW,2013-04-26 22:46:00,
2013-04-26 18:47:00,65.5,37.7,30.31,East,90,0.0,0.9,36,0.00,,,0.00,WUHU216HW,2013-04-26 22:47:00,
2013-04-26 18:48:00,65.5,37.7,30.31,East,90,0.0,0.9,36,0.00,,,0.00,WUHU216HW,2013-04-26 22:48:00,
2013-04-26 18:50:00,65.3,38.3,30.31,East,90,0.0,0.9,37,0.00,,,0.00,WUHU216HW,2013-04-26 22:50:00,
2013-04-26 18:51:00,65.3,38.3,30.31,East,90,0.0,0.9,37,0.00,,,0.00,WUHU216HW,2013-04-26 22:51:00,
2013-04-26 18:52:00,65.3,38.3,30.31,East,90,0.0,0.9,37,0.00,,,0.00,WUHU216HW,2013-04-26 22:52:00,
2013-04-26 18:53:00,65.3,38.3,30.31,East,90,0.0,0.9,37,0.00,,,0.00,WUHU216HW,2013-04-26 22:53:00,
2013-04-26 18:55:00,65.3,37.5,30.31,WNW,293,0.2,0.9,36,0.00,,,0.00,WUHU216HW,2013-04-26 22:55:00,
2013-04-26 18:56:00,65.2,37.4,30.31,WNW,293,0.0,0.7,36,0.00,,,0.00,WUHU216HW,2013-04-26 22:56:00,
2013-04-26 18:58:00,65.2,37.4,30.31,WNW,293,0.0,0.7,36,0.00,,,0.00,WUHU216HW,2013-04-26 22:58:00,
2013-04-26 19:00:00,65.2,37.4,30.31,WNW,293,0.0,0.7,36,0.00,,,0.00,WUHU216HW,2013-04-26 23:00:00,
2013-04-26 19:01:00,65.0,35.7,30.31,WNW,293,0.0,0.7,34,0.00,,,0.00,WUHU216HW,2013-04-26 23:01:00,
2013-04-26 19:02:00,65.0,35.7,30.31,WNW,293,0.0,0.7,34,0.00,,,0.00,WUHU216HW,2013-04-26 23:02:00,
2013-04-26 19:03:00,64.8,37.1,30.31,WNW,293,0.0,0.7,36,0.00,,,0.00,WUHU216HW,2013-04-26 23:03:00,
2013-04-26 19:05:00,64.8,37.1,30.31,WNW,293,0.0,0.2,36,0.00,,,0.00,WUHU216HW,2013-04-26 23:05:00,
2013-04-26 19:06:00,65.0,36.5,30.31,WNW,293,0.0,0.2,35,0.00,,,0.00,WUHU216HW,2013-04-26 23:06:00,
2013-04-26 19:07:00,65.0,37.2,30.32,WNW,293,0.2,0.2,36,0.00,,,0.00,WUHU216HW,2013-04-26 23:07:00,
2013-04-26 19:09:00,65.2,37.4,30.32,ESE,113,0.0,0.4,36,0.00,,,0.00,WUHU216HW,2013-04-26 23:09:00,
2013-04-26 19:11:00,65.3,37.5,30.32,ESE,113,0.0,0.4,36,0.00,,,0.00,WUHU216HW,2013-04-26 23:11:00,
2013-04-26 19:12:00,65.3,37.5,30.32,ESE,113,0.0,0.4,36,0.00,,,0.00,WUHU216HW,2013-04-26 23:12:00,
2013-04-26 19:13:00,65.3,38.3,30.32,ESE,113,0.0,0.4,37,0.00,,,0.00,WUHU216HW,2013-04-26 23:13:00,
2013-04-26 19:15:00,65.3,37.5,30.32,ESE,113,0.0,0.4,36,0.00,,,0.00,WUHU216HW,2013-04-26 23:15:00,
2013-04-26 19:17:00,65.2,37.4,30.32,ESE,113,0.0,0.4,36,0.00,,,0.00,WUHU216HW,2013-04-26 23:17:00,
2013-04-26 19:18:00,64.8,37.8,30.32,East,90,0.0,0.4,37,0.00,,,0.00,WUHU216HW,2013-04-26 23:18:00,
2013-04-26 19:19:00,64.6,37.6,30.32,East,90,0.4,0.4,37,0.00,,,0.00,WUHU216HW,2013-04-26 23:19:00,
2013-04-26 19:20:00,64.4,37.4,30.32,East,90,0.2,0.4,37,0.00,,,0.00,WUHU216HW,2013-04-26 23:20:00,
2013-04-26 19:22:00,64.3,37.3,30.32,East,90,0.0,0.4,37,0.00,,,0.00,WUHU216HW,2013-04-26 23:22:00,
2013-04-26 19:23:00,64.3,37.3,30.32,East,90,0.0,0.4,37,0.00,,,0.00,WUHU216HW,2013-04-26 23:23:00,
2013-04-26 19:24:00,64.1,37.8,30.32,East,90,0.0,0.4,38,0.00,,,0.00,WUHU216HW,2013-04-26 23:24:00,
2013-04-26 19:26:00,63.7,37.5,30.32,East,90,0.0,0.4,38,0.00,,,0.00,WUHU216HW,2013-04-26 23:26:00,
2013-04-26 19:29:00,63.4,37.2,30.32,East,90,0.0,0.4,38,0.00,,,0.00,WUHU216HW,2013-04-26 23:29:00,
2013-04-26 19:32:00,63.0,37.6,30.32,East,90,0.0,0.0,39,0.00,,,0.00,WUHU216HW,2013-04-26 23:32:00,
2013-04-26 19:34:00,62.6,37.3,30.32,East,90,0.0,0.0,39,0.00,,,0.00,WUHU216HW,2013-04-26 23:34:00,
2013-04-26 19:35:00,62.6,37.3,30.32,East,90,0.0,0.0,39,0.00,,,0.00,WUHU216HW,2013-04-26 23:35:00,
2013-04-26 19:38:00,62.3,37.6,30.31,East,90,0.0,0.0,40,0.00,,,0.00,WUHU216HW,2013-04-26 23:38:00,
2013-04-26 19:40:00,61.9,37.9,30.32,East,90,0.0,0.0,41,0.00,,,0.00,WUHU216HW,2013-04-26 23:40:00,
2013-04-26 19:41:00,61.9,37.9,30.32,East,90,0.0,0.0,41,0.00,,,0.00,WUHU216HW,2013-04-26 23:41:00,
2013-04-26 19:43:00,61.6,37.6,30.32,East,90,0.0,0.0,41,0.00,,,0.00,WUHU216HW,2013-04-26 23:43:00,
2013-04-26 19:45:00,61.4,37.5,30.32,East,90,0.0,0.0,41,0.00,,,0.00,WUHU216HW,2013-04-26 23:45:00,
2013-04-26 19:46:00,61.2,37.3,30.32,East,90,0.0,0.0,41,0.00,,,0.00,WUHU216HW,2013-04-26 23:46:00,
2013-04-26 19:50:00,60.8,37.5,30.33,East,90,0.0,0.0,42,0.00,,,0.00,WUHU216HW,2013-04-26 23:50:00,
2013-04-26 19:51:00,60.7,37.4,30.33,East,90,0.0,0.0,42,0.00,,,0.00,WUHU216HW,2013-04-26 23:51:00,
2013-04-26 19:52:00,60.5,37.8,30.33,East,90,0.0,0.0,43,0.00,,,0.00,WUHU216HW,2013-04-26 23:52:00,
2013-04-26 19:54:00,60.3,37.6,30.33,East,90,0.0,0.0,43,0.00,,,0.00,WUHU216HW,2013-04-26 23:54:00,
2013-04-26 20:05:00,59.0,37.6,30.33,East,90,0.0,0.0,45,0.00,,,0.00,WUHU216HW,2013-04-27 00:05:00,
2013-04-26 20:06:00,58.9,37.4,30.33,East,90,0.0,0.0,45,0.00,,,0.00,WUHU216HW,2013-04-27 00:06:00,
2013-04-26 20:07:00,58.7,37.3,30.33,East,90,0.0,0.0,45,0.00,,,0.00,WUHU216HW,2013-04-27 00:07:00,
2013-04-26 20:11:00,58.3,37.5,30.33,East,90,0.0,0.0,46,0.00,,,0.00,WUHU216HW,2013-04-27 00:11:00,
2013-04-26 20:12:00,58.1,37.4,30.33,East,90,0.0,0.0,46,0.00,,,0.00,WUHU216HW,2013-04-27 00:12:00,
2013-04-26 20:14:00,58.0,37.8,30.33,East,90,0.0,0.0,47,0.00,,,0.00,WUHU216HW,2013-04-27 00:14:00,
2013-04-26 20:17:00,57.6,37.4,30.33,East,90,0.0,0.0,47,0.00,,,0.00,WUHU216HW,2013-04-27 00:17:00,
2013-04-26 20:18:00,57.4,37.9,30.33,East,90,0.0,0.0,48,0.00,,,0.00,WUHU216HW,2013-04-27 00:18:00,
2013-04-26 20:19:00,57.4,37.9,30.33,East,90,0.0,0.0,48,0.00,,,0.00,WUHU216HW,2013-04-27 00:19:00,
2013-04-26 20:22:00,57.1,37.5,30.33,East,90,0.0,0.0,48,0.00,,,0.00,WUHU216HW,2013-04-27 00:22:00,
2013-04-26 20:24:00,56.9,37.4,30.34,East,90,0.0,0.0,48,0.00,,,0.00,WUHU216HW,2013-04-27 00:24:00,
2013-04-26 20:28:00,56.5,37.6,30.34,East,90,0.0,0.0,49,0.00,,,0.00,WUHU216HW,2013-04-27 00:28:00,
2013-04-26 20:29:00,56.3,37.5,30.34,East,90,0.0,0.0,49,0.00,,,0.00,WUHU216HW,2013-04-27 00:29:00,
2013-04-26 20:30:00,56.2,37.3,30.34,East,90,0.0,0.0,49,0.00,,,0.00,WUHU216HW,2013-04-27 00:30:00,
2013-04-26 20:33:00,56.0,37.6,30.34,East,90,0.0,0.0,50,0.00,,,0.00,WUHU216HW,2013-04-27 00:33:00,
2013-04-26 20:34:00,55.8,37.4,30.34,East,90,0.0,0.0,50,0.00,,,0.00,WUHU216HW,2013-04-27 00:34:00,
2013-04-26 20:35:00,55.8,37.4,30.34,East,90,0.0,0.0,50,0.00,,,0.00,WUHU216HW,2013-04-27 00:35:00,
2013-04-26 20:37:00,55.6,37.3,30.34,East,90,0.0,0.0,50,0.00,,,0.00,WUHU216HW,2013-04-27 00:37:00,
2013-04-26 20:39:00,55.3,36.9,30.34,East,90,0.0,0.0,50,0.00,,,0.00,WUHU216HW,2013-04-27 00:39:00,
2013-04-26 20:40:00,55.3,36.9,30.34,East,90,0.0,0.0,50,0.00,,,0.00,WUHU216HW,2013-04-27 00:40:00,
2013-04-26 20:43:00,55.1,36.7,30.34,East,90,0.0,0.0,50,0.00,,,0.00,WUHU216HW,2013-04-27 00:43:00,
2013-04-26 20:44:00,54.9,36.6,30.34,East,90,0.0,0.0,50,0.00,,,0.00,WUHU216HW,2013-04-27 00:44:00,
2013-04-26 20:45:00,54.9,37.1,30.34,East,90,0.0,0.0,51,0.00,,,0.00,WUHU216HW,2013-04-27 00:45:00,
2013-04-26 20:46:00,54.7,36.9,30.34,East,90,0.0,0.0,51,0.00,,,0.00,WUHU216HW,2013-04-27 00:46:00,
2013-04-26 20:49:00,54.4,36.5,30.35,East,90,0.0,0.0,51,0.00,,,0.00,WUHU216HW,2013-04-27 00:49:00,
2013-04-26 20:50:00,54.4,37.1,30.35,East,90,0.0,0.0,52,0.00,,,0.00,WUHU216HW,2013-04-27 00:50:00,
2013-04-26 20:51:00,54.4,37.1,30.35,East,90,0.0,0.0,52,0.00,,,0.00,WUHU216HW,2013-04-27 00:51:00,
2013-04-26 20:52:00,54.2,36.9,30.35,East,90,0.0,0.0,52,0.00,,,0.00,WUHU216HW,2013-04-27 00:52:00,
2013-04-26 20:56:00,54.0,36.7,30.35,East,90,0.0,0.0,52,0.00,,,0.00,WUHU216HW,2013-04-27 00:56:00,
2013-04-26 20:57:00,53.8,36.5,30.35,East,90,0.0,0.0,52,0.00,,,0.00,WUHU216HW,2013-04-27 00:57:00,
2013-04-26 21:01:00,53.6,36.4,30.35,East,90,0.0,0.0,52,0.00,,,0.00,WUHU216HW,2013-04-27 01:01:00,
2013-04-26 21:02:00,53.5,36.3,30.35,East,90,0.0,0.0,52,0.00,,,0.00,WUHU216HW,2013-04-27 01:02:00,
2013-04-26 21:03:00,53.5,36.3,30.35,East,90,0.0,0.0,52,0.00,,,0.00,WUHU216HW,2013-04-27 01:03:00,
2013-04-26 21:06:00,52.9,36.2,30.35,East,90,0.0,0.0,53,0.00,,,0.00,WUHU216HW,2013-04-27 01:06:00,
2013-04-26 21:07:00,52.9,36.2,30.35,East,90,0.0,0.0,53,0.00,,,0.00,WUHU216HW,2013-04-27 01:07:00,
2013-04-26 21:09:00,52.9,36.6,30.35,East,90,0.0,0.0,54,0.00,,,0.00,WUHU216HW,2013-04-27 01:09:00,
2013-04-26 21:12:00,52.7,36.5,30.35,East,90,0.0,0.0,54,0.00,,,0.00,WUHU216HW,2013-04-27 01:12:00,
2013-04-26 21:13:00,52.6,36.4,30.35,East,90,0.0,0.0,54,0.00,,,0.00,WUHU216HW,2013-04-27 01:13:00,
2013-04-26 21:15:00,52.6,36.4,30.35,East,90,0.0,0.0,54,0.00,,,0.00,WUHU216HW,2013-04-27 01:15:00,
2013-04-26 21:17:00,52.4,36.6,30.35,East,90,0.0,0.0,55,0.00,,,0.00,WUHU216HW,2013-04-27 01:17:00,
2013-04-26 21:18:00,52.2,36.0,30.35,East,90,0.0,0.0,54,0.00,,,0.00,WUHU216HW,2013-04-27 01:18:00,
2013-04-26 21:21:00,52.2,36.0,30.35,East,90,0.0,0.0,54,0.00,,,0.00,WUHU216HW,2013-04-27 01:21:00,
2013-04-26 21:22:00,52.2,36.5,30.35,East,90,0.0,0.0,55,0.00,,,0.00,WUHU216HW,2013-04-27 01:22:00,
2013-04-26 21:23:00,52.0,36.3,30.35,East,90,0.0,0.0,55,0.00,,,0.00,WUHU216HW,2013-04-27 01:23:00,
2013-04-26 21:24:00,52.0,36.3,30.36,East,90,0.0,0.0,55,0.00,,,0.00,WUHU216HW,2013-04-27 01:24:00,
2013-04-26 21:27:00,51.8,36.1,30.35,East,90,0.0,0.0,55,0.00,,,0.00,WUHU216HW,2013-04-27 01:27:00,
2013-04-26 21:29:00,51.7,35.9,30.35,East,90,0.0,0.0,55,0.00,,,0.00,WUHU216HW,2013-04-27 01:29:00,
2013-04-26 21:33:00,51.5,36.2,30.36,East,90,0.0,0.0,56,0.00,,,0.00,WUHU216HW,2013-04-27 01:33:00,
2013-04-26 21:34:00,51.5,36.2,30.36,East,90,0.0,0.0,56,0.00,,,0.00,WUHU216HW,2013-04-27 01:34:00,
2013-04-26 21:36:00,51.3,36.1,30.36,East,90,0.0,0.0,56,0.00,,,0.00,WUHU216HW,2013-04-27 01:36:00,
2013-04-26 21:39:00,51.1,35.9,30.36,East,90,0.0,0.0,56,0.00,,,0.00,WUHU216HW,2013-04-27 01:39:00,
2013-04-26 21:40:00,51.1,36.4,30.36,East,90,0.0,0.0,57,0.00,,,0.00,WUHU216HW,2013-04-27 01:40:00,
2013-04-26 21:41:00,50.9,36.6,30.36,East,90,0.0,0.0,58,0.00,,,0.00,WUHU216HW,2013-04-27 01:41:00,
2013-04-26 21:44:00,50.8,36.5,30.36,East,90,0.0,0.0,58,0.00,,,0.00,WUHU216HW,2013-04-27 01:44:00,
2013-04-26 21:46:00,50.8,36.5,30.36,East,90,0.0,0.0,58,0.00,,,0.00,WUHU216HW,2013-04-27 01:46:00,
2013-04-26 21:47:00,50.8,36.5,30.36,East,90,0.0,0.0,58,0.00,,,0.00,WUHU216HW,2013-04-27 01:47:00,
2013-04-26 21:50:00,50.6,36.3,30.37,East,90,0.0,0.0,58,0.00,,,0.00,WUHU216HW,2013-04-27 01:50:00,
2013-04-26 21:51:00,50.6,36.7,30.37,East,90,0.0,0.0,59,0.00,,,0.00,WUHU216HW,2013-04-27 01:51:00,
2013-04-26 21:52:00,50.6,36.7,30.37,East,90,0.0,0.0,59,0.00,,,0.00,WUHU216HW,2013-04-27 01:52:00,
2013-04-26 21:56:00,50.4,36.6,30.36,East,90,0.0,0.0,59,0.00,,,0.00,WUHU216HW,2013-04-27 01:56:00,
2013-04-26 21:57:00,50.2,36.5,30.37,East,90,0.0,0.0,59,0.00,,,0.00,WUHU216HW,2013-04-27 01:57:00,
2013-04-26 21:59:00,50.2,36.5,30.37,East,90,0.0,0.0,59,0.00,,,0.00,WUHU216HW,2013-04-27 01:59:00,
2013-04-26 22:02:00,50.0,36.3,30.37,East,90,0.0,0.0,59,0.00,,,0.00,WUHU216HW,2013-04-27 02:02:00,
2013-04-26 22:03:00,50.0,36.3,30.37,East,90,0.0,0.0,59,0.00,,,0.00,WUHU216HW,2013-04-27 02:03:00,
2013-04-26 22:04:00,49.9,36.5,30.37,East,90,0.0,0.0,60,0.00,,,0.00,WUHU216HW,2013-04-27 02:04:00,
2013-04-26 22:05:00,49.9,36.5,30.37,East,90,0.0,0.0,60,0.00,,,0.00,WUHU216HW,2013-04-27 02:05:00,
2013-04-26 22:07:00,49.7,36.4,30.37,East,90,0.0,0.0,60,0.00,,,0.00,WUHU216HW,2013-04-27 02:07:00,
2013-04-26 22:08:00,49.7,36.4,30.37,East,90,0.0,0.0,60,0.00,,,0.00,WUHU216HW,2013-04-27 02:08:00,
2013-04-26 22:10:00,49.7,36.4,30.37,East,90,0.0,0.0,60,0.00,,,0.00,WUHU216HW,2013-04-27 02:10:00,
2013-04-26 22:12:00,49.3,36.1,30.37,East,90,0.0,0.0,60,0.00,,,0.00,WUHU216HW,2013-04-27 02:12:00,
2013-04-26 22:13:00,49.3,36.1,30.37,East,90,0.0,0.0,60,0.00,,,0.00,WUHU216HW,2013-04-27 02:13:00,
2013-04-26 22:15:00,49.3,36.5,30.37,East,90,0.0,0.0,61,0.00,,,0.00,WUHU216HW,2013-04-27 02:15:00,
2013-04-26 22:17:00,49.3,36.5,30.37,East,90,0.0,0.0,61,0.00,,,0.00,WUHU216HW,2013-04-27 02:17:00,
2013-04-26 22:18:00,49.1,36.3,30.37,East,90,0.0,0.0,61,0.00,,,0.00,WUHU216HW,2013-04-27 02:18:00,
2013-04-26 22:19:00,49.0,36.1,30.37,East,90,0.0,0.0,61,0.00,,,0.00,WUHU216HW,2013-04-27 02:19:00,
2013-04-26 22:22:00,49.0,36.1,30.37,East,90,0.0,0.0,61,0.00,,,0.00,WUHU216HW,2013-04-27 02:22:00,
2013-04-26 22:23:00,48.8,36.0,30.37,East,90,0.0,0.0,61,0.00,,,0.00,WUHU216HW,2013-04-27 02:23:00,
2013-04-26 22:25:00,48.6,35.8,30.37,East,90,0.0,0.0,61,0.00,,,0.00,WUHU216HW,2013-04-27 02:25:00,
2013-04-26 22:28:00,48.6,35.8,30.37,East,90,0.0,0.0,61,0.00,,,0.00,WUHU216HW,2013-04-27 02:28:00,
2013-04-26 22:29:00,48.6,35.8,30.37,East,90,0.0,0.0,61,0.00,,,0.00,WUHU216HW,2013-04-27 02:29:00,
2013-04-26 22:30:00,48.6,35.8,30.37,East,90,0.0,0.0,61,0.00,,,0.00,WUHU216HW,2013-04-27 02:30:00,
2013-04-26 22:32:00,48.2,35.8,30.37,East,90,0.0,0.0,62,0.00,,,0.00,WUHU216HW,2013-04-27 02:32:00,
2013-04-26 22:33:00,48.2,35.8,30.37,East,90,0.0,0.0,62,0.00,,,0.00,WUHU216HW,2013-04-27 02:33:00,
2013-04-26 22:34:00,48.2,35.8,30.37,East,90,0.0,0.0,62,0.00,,,0.00,WUHU216HW,2013-04-27 02:34:00,
2013-04-26 22:35:00,48.1,35.6,30.37,East,90,0.0,0.0,62,0.00,,,0.00,WUHU216HW,2013-04-27 02:35:00,
2013-04-26 22:38:00,47.9,35.5,30.37,East,90,0.0,0.0,62,0.00,,,0.00,WUHU216HW,2013-04-27 02:38:00,
2013-04-26 22:39:00,47.9,35.5,30.37,East,90,0.0,0.0,62,0.00,,,0.00,WUHU216HW,2013-04-27 02:39:00,
2013-04-26 22:41:00,47.9,35.5,30.37,East,90,0.0,0.0,62,0.00,,,0.00,WUHU216HW,2013-04-27 02:41:00,
2013-04-26 22:43:00,47.9,35.5,30.37,East,90,0.0,0.0,62,0.00,,,0.00,WUHU216HW,2013-04-27 02:43:00,
2013-04-26 22:44:00,47.9,35.5,30.37,East,90,0.0,0.0,62,0.00,,,0.00,WUHU216HW,2013-04-27 02:44:00,
2013-04-26 22:45:00,47.9,35.5,30.37,East,90,0.0,0.0,62,0.00,,,0.00,WUHU216HW,2013-04-27 02:45:00,
2013-04-26 22:46:00,47.7,35.7,30.37,East,90,0.0,0.0,63,0.00,,,0.00,WUHU216HW,2013-04-27 02:46:00,
2013-04-26 22:47:00,47.7,35.7,30.37,East,90,0.0,0.0,63,0.00,,,0.00,WUHU216HW,2013-04-27 02:47:00,
2013-04-26 22:48:00,47.5,35.6,30.37,East,90,0.0,0.0,63,0.00,,,0.00,WUHU216HW,2013-04-27 02:48:00,
2013-04-26 22:50:00,47.5,35.6,30.37,East,90,0.0,0.0,63,0.00,,,0.00,WUHU216HW,2013-04-27 02:50:00,
2013-04-26 22:51:00,47.5,35.6,30.37,East,90,0.0,0.0,63,0.00,,,0.00,WUHU216HW,2013-04-27 02:51:00,
2013-04-26 22:52:00,47.5,35.9,30.37,East,90,0.0,0.0,64,0.00,,,0.00,WUHU216HW,2013-04-27 02:52:00,
2013-04-26 22:54:00,47.3,35.4,30.37,East,90,0.0,0.0,63,0.00,,,0.00,WUHU216HW,2013-04-27 02:54:00,
2013-04-26 22:55:00,47.2,35.2,30.37,East,90,0.0,0.0,63,0.00,,,0.00,WUHU216HW,2013-04-27 02:55:00,
2013-04-26 22:57:00,47.2,35.2,30.37,East,90,0.0,0.0,63,0.00,,,0.00,WUHU216HW,2013-04-27 02:57:00,
2013-04-26 22:58:00,47.2,35.2,30.37,East,90,0.0,0.0,63,0.00,,,0.00,WUHU216HW,2013-04-27 02:58:00,
2013-04-26 22:59:00,47.2,35.6,30.37,East,90,0.0,0.0,64,0.00,,,0.00,WUHU216HW,2013-04-27 02:59:00,
2013-04-26 23:01:00,47.2,35.2,30.37,East,90,0.0,0.0,63,0.00,,,0.00,WUHU216HW,2013-04-27 03:01:00,
2013-04-26 23:03:00,47.0,35.4,30.37,East,90,0.0,0.0,64,0.00,,,0.00,WUHU216HW,2013-04-27 03:03:00,
2013-04-26 23:04:00,47.0,35.4,30.37,East,90,0.0,0.0,64,0.00,,,0.00,WUHU216HW,2013-04-27 03:04:00,
2013-04-26 23:05:00,47.0,35.4,30.37,East,90,0.0,0.0,64,0.00,,,0.00,WUHU216HW,2013-04-27 03:05:00,
2013-04-26 23:07:00,46.8,35.2,30.37,East,90,0.0,0.0,64,0.00,,,0.00,WUHU216HW,2013-04-27 03:07:00,
2013-04-26 23:08:00,46.8,35.7,30.37,East,90,0.0,0.0,65,0.00,,,0.00,WUHU216HW,2013-04-27 03:08:00,
2013-04-26 23:09:00,46.6,35.5,30.37,East,90,0.0,0.0,65,0.00,,,0.00,WUHU216HW,2013-04-27 03:09:00,
2013-04-26 23:10:00,46.6,35.5,30.37,East,90,0.0,0.0,65,0.00,,,0.00,WUHU216HW,2013-04-27 03:10:00,
2013-04-26 23:12:00,46.4,35.6,30.37,East,90,0.0,0.0,66,0.00,,,0.00,WUHU216HW,2013-04-27 03:12:00,
2013-04-26 23:14:00,46.4,35.6,30.37,East,90,0.0,0.0,66,0.00,,,0.00,WUHU216HW,2013-04-27 03:14:00,
2013-04-26 23:16:00,46.4,35.3,30.36,East,90,0.0,0.0,65,0.00,,,0.00,WUHU216HW,2013-04-27 03:16:00,
2013-04-26 23:17:00,46.3,35.1,30.36,East,90,0.0,0.0,65,0.00,,,0.00,WUHU216HW,2013-04-27 03:17:00,
2013-04-26 23:20:00,46.3,35.5,30.36,East,90,0.0,0.0,66,0.00,,,0.00,WUHU216HW,2013-04-27 03:20:00,
2013-04-26 23:22:00,46.1,35.4,30.36,East,90,0.0,0.0,66,0.00,,,0.00,WUHU216HW,2013-04-27 03:22:00,
2013-04-26 23:24:00,45.9,35.6,30.36,East,90,0.0,0.0,67,0.00,,,0.00,WUHU216HW,2013-04-27 03:24:00,
2013-04-26 23:25:00,45.9,35.6,30.36,East,90,0.0,0.0,67,0.00,,,0.00,WUHU216HW,2013-04-27 03:25:00,
2013-04-26 23:26:00,45.9,35.6,30.36,East,90,0.0,0.0,67,0.00,,,0.00,WUHU216HW,2013-04-27 03:26:00,
2013-04-26 23:29:00,45.7,35.4,30.36,East,90,0.0,0.0,67,0.00,,,0.00,WUHU216HW,2013-04-27 03:29:00,
2013-04-26 23:31:00,45.7,35.4,30.36,East,90,0.0,0.0,67,0.00,,,0.00,WUHU216HW,2013-04-27 03:31:00,
2013-04-26 23:34:00,45.5,35.2,30.36,East,90,0.0,0.0,67,0.00,,,0.00,WUHU216HW,2013-04-27 03:34:00,
2013-04-26 23:35:00,45.5,35.2,30.36,East,90,0.0,0.0,67,0.00,,,0.00,WUHU216HW,2013-04-27 03:35:00,
2013-04-26 23:36:00,45.5,35.2,30.36,East,90,0.0,0.0,67,0.00,,,0.00,WUHU216HW,2013-04-27 03:36:00,
2013-04-26 23:37:00,45.5,35.2,30.36,East,90,0.0,0.0,67,0.00,,,0.00,WUHU216HW,2013-04-27 03:37:00,
2013-04-26 23:39:00,45.5,35.2,30.36,East,90,0.0,0.0,67,0.00,,,0.00,WUHU216HW,2013-04-27 03:39:00,
2013-04-26 23:41:00,45.4,35.4,30.36,East,90,0.0,0.0,68,0.00,,,0.00,WUHU216HW,2013-04-27 03:41:00,
2013-04-26 23:42:00,45.4,35.4,30.36,East,90,0.0,0.0,68,0.00,,,0.00,WUHU216HW,2013-04-27 03:42:00,
2013-04-26 23:45:00,45.4,35.4,30.36,East,90,0.0,0.0,68,0.00,,,0.00,WUHU216HW,2013-04-27 03:45:00,
2013-04-26 23:47:00,45.2,35.2,30.36,East,90,0.0,0.0,68,0.00,,,0.00,WUHU216HW,2013-04-27 03:47:00,
2013-04-26 23:48:00,45.2,35.2,30.36,East,90,0.0,0.0,68,0.00,,,0.00,WUHU216HW,2013-04-27 03:48:00,
2013-04-26 23:50:00,45.0,35.1,30.36,East,90,0.0,0.0,68,0.00,,,0.00,WUHU216HW,2013-04-27 03:50:00,
2013-04-26 23:52:00,45.0,35.5,30.36,East,90,0.0,0.0,69,0.00,,,0.00,WUHU216HW,2013-04-27 03:52:00,
2013-04-26 23:54:00,45.0,35.5,30.35,East,90,0.0,0.0,69,0.00,,,0.00,WUHU216HW,2013-04-27 03:54:00,
2013-04-26 23:56:00,44.8,35.3,30.35,East,90,0.0,0.0,69,0.00,,,0.00,WUHU216HW,2013-04-27 03:56:00,
2013-04-26 23:58:00,44.8,35.3,30.35,East,90,0.0,0.0,69,0.00,,,0.00,WUHU216HW,2013-04-27 03:58:00,